Wetterdaten: Samstag, 11.02.2023
Datum Zeit Temp. Aussen Temp. o. S. Temp +5cm Feuchte Auss Luftdruck Regen Sonnenschein Regendauer Solar Windben Empfang
11.02.2023 00:00 6,7 C 6,1 C 2,2 C 88 % 1035,6 hPa 0,0 l/m 0 min 0 min 0 W/m 16,1 km/h (3 Bft) 80,85 %
11.02.2023 00:02 6,6 C 6,1 C 2,2 C 88 % 1035,7 hPa 0,0 l/m 0 min 0 min 0 W/m 12,9 km/h (3 Bft) 84,78 %
11.02.2023 00:04 6,6 C 6,1 C 2,2 C 88 % 1035,7 hPa 0,0 l/m 0 min 0 min 0 W/m 16,1 km/h (3 Bft) 76,60 %
11.02.2023 00:07 6,6 C 5,6 C 2,2 C 88 % 1035,7 hPa 0,0 l/m 0 min 0 min 0 W/m 12,9 km/h (3 Bft) 52,78 %
11.02.2023 00:14 6,6 C 5,6 C 2,2 C 88 % 1035,8 hPa 0,0 l/m 0 min 0 min 0 W/m 9,7 km/h (2 Bft) 91,43 %
11.02.2023 00:16 6,5 C 5,6 C 2,2 C 88 % 1035,8 hPa 0,0 l/m 0 min 0 min 0 W/m 12,9 km/h (3 Bft) 97,83 %
11.02.2023 00:18 6,5 C 5,6 C 2,2 C 88 % 1035,8 hPa 0,0 l/m 0 min 0 min 0 W/m 6,4 km/h (2 Bft) 100,00 %
11.02.2023 00:20 6,5 C 5,6 C 2,2 C 88 % 1035,8 hPa 0,0 l/m 0 min 0 min 0 W/m 12,9 km/h (3 Bft) 97,87 %
11.02.2023 00:22 6,5 C 5,6 C 2,2 C 88 % 1035,8 hPa 0,0 l/m 0 min 0 min 0 W/m 6,4 km/h (2 Bft) 95,74 %
11.02.2023 00:24 6,5 C 5,6 C 2,2 C 88 % 1035,7 hPa 0,0 l/m 0 min 0 min 0 W/m 6,4 km/h (2 Bft) 91,49 %
11.02.2023 00:26 6,5 C 5,6 C 2,2 C 88 % 1035,8 hPa 0,0 l/m 0 min 0 min 0 W/m 12,9 km/h (3 Bft) 97,87 %
11.02.2023 00:28 6,4 C 5,6 C 2,2 C 88 % 1035,8 hPa 0,0 l/m 0 min 0 min 0 W/m 16,1 km/h (3 Bft) 86,96 %
11.02.2023 00:30 6,4 C 5,6 C 1,7 C 88 % 1035,7 hPa 0,0 l/m 0 min 0 min 0 W/m 12,9 km/h (3 Bft) 87,23 %
11.02.2023 00:32 6,4 C 5,6 C 1,7 C 88 % 1035,7 hPa 0,0 l/m 0 min 0 min 0 W/m 16,1 km/h (3 Bft) 82,98 %
11.02.2023 00:34 6,4 C 5,6 C 1,7 C 88 % 1035,7 hPa 0,0 l/m 0 min 0 min 0 W/m 12,9 km/h (3 Bft) 87,23 %
11.02.2023 00:36 6,4 C 5,6 C 1,7 C 88 % 1035,7 hPa 0,0 l/m 0 min 0 min 0 W/m 6,4 km/h (2 Bft) 91,49 %
11.02.2023 00:38 6,3 C 5,6 C 1,7 C 88 % 1035,7 hPa 0,0 l/m 0 min 0 min 0 W/m 9,7 km/h (2 Bft) 93,62 %
11.02.2023 00:40 6,3 C 5,6 C 1,7 C 88 % 1035,7 hPa 0,0 l/m 0 min 0 min 0 W/m 16,1 km/h (3 Bft) 95,65 %
11.02.2023 00:42 6,3 C 5,6 C 1,7 C 88 % 1035,7 hPa 0,0 l/m 0 min 0 min 0 W/m 6,4 km/h (2 Bft) 97,87 %
11.02.2023 00:44 6,3 C 5,6 C 1,7 C 88 % 1035,7 hPa 0,0 l/m 0 min 0 min 0 W/m 9,7 km/h (2 Bft) 97,87 %
11.02.2023 00:46 6,2 C 5,6 C 1,7 C 88 % 1035,7 hPa 0,0 l/m 0 min 0 min 0 W/m 16,1 km/h (3 Bft) 95,74 %
11.02.2023 00:48 6,2 C 5,6 C 1,7 C 88 % 1035,6 hPa 0,0 l/m 0 min 0 min 0 W/m 6,4 km/h (2 Bft) 95,74 %
11.02.2023 00:50 6,2 C 5,0 C 1,7 C 88 % 1035,7 hPa 0,0 l/m 0 min 0 min 0 W/m 3,2 km/h (1 Bft) 95,74 %
11.02.2023 00:52 6,2 C 5,0 C 1,7 C 88 % 1035,7 hPa 0,0 l/m 0 min 0 min 0 W/m 12,9 km/h (3 Bft) 91,30 %
11.02.2023 00:54 6,2 C 5,0 C 1,7 C 89 % 1035,6 hPa 0,0 l/m 0 min 0 min 0 W/m 9,7 km/h (2 Bft) 93,62 %
11.02.2023 00:56 6,1 C 5,0 C 1,7 C 89 % 1035,5 hPa 0,0 l/m 0 min 0 min 0 W/m 12,9 km/h (3 Bft) 89,36 %
11.02.2023 00:58 6,1 C 5,0 C 1,7 C 88 % 1035,4 hPa 0,0 l/m 0 min 0 min 0 W/m 6,4 km/h (2 Bft) 91,49 %
11.02.2023 01:00 6,1 C 5,0 C 1,7 C 88 % 1035,5 hPa 0,0 l/m 0 min 0 min 0 W/m 9,7 km/h (2 Bft) 91,49 %
11.02.2023 01:02 6,1 C 5,0 C 1,7 C 89 % 1035,4 hPa 0,0 l/m 0 min 0 min 0 W/m 3,2 km/h (1 Bft) 44,44 %
11.02.2023 01:04 6,1 C 5,0 C 1,7 C 89 % 1035,4 hPa 0,0 l/m 0 min 0 min 0 W/m 12,9 km/h (3 Bft) 95,74 %
11.02.2023 01:06 6,1 C 5,0 C 1,7 C 89 % 1035,3 hPa 0,0 l/m 0 min 0 min 0 W/m 9,7 km/h (2 Bft) 94,83 %
11.02.2023 01:08 6,1 C 5,0 C 1,7 C 89 % 1035,3 hPa 0,0 l/m 0 min 0 min 0 W/m 12,9 km/h (3 Bft) 91,43 %
11.02.2023 01:10 6,0 C 5,0 C 1,7 C 89 % 1035,3 hPa 0,0 l/m 0 min 0 min 0 W/m 9,7 km/h (2 Bft) 91,49 %
11.02.2023 01:12 6,0 C 5,0 C 1,7 C 89 % 1035,4 hPa 0,0 l/m 0 min 0 min 0 W/m 6,4 km/h (2 Bft) 82,98 %
11.02.2023 01:14 6,0 C 5,0 C 1,7 C 89 % 1035,4 hPa 0,0 l/m 0 min 0 min 0 W/m 9,7 km/h (2 Bft) 82,98 %
11.02.2023 01:16 5,9 C 5,0 C 1,7 C 89 % 1035,3 hPa 0,0 l/m 0 min 0 min 0 W/m 9,7 km/h (2 Bft) 76,60 %
11.02.2023 01:18 5,9 C 5,0 C 1,7 C 89 % 1035,3 hPa 0,0 l/m 0 min 0 min 0 W/m 12,9 km/h (3 Bft) 87,23 %
11.02.2023 01:20 5,9 C 5,0 C 1,7 C 89 % 1035,3 hPa 0,0 l/m 0 min 0 min 0 W/m 6,4 km/h (2 Bft) 89,13 %
11.02.2023 01:22 5,9 C 5,0 C 1,7 C 89 % 1035,3 hPa 0,0 l/m 0 min 0 min 0 W/m 6,4 km/h (2 Bft) 57,45 %
11.02.2023 01:24 5,9 C 5,0 C 1,7 C 89 % 1035,3 hPa 0,0 l/m 0 min 0 min 0 W/m 9,7 km/h (2 Bft) 68,09 %
11.02.2023 01:26 5,9 C 5,0 C 1,1 C 89 % 1035,2 hPa 0,0 l/m 0 min 0 min 0 W/m 12,9 km/h (3 Bft) 74,47 %
11.02.2023 01:28 5,8 C 5,0 C 1,1 C 89 % 1035,2 hPa 0,0 l/m 0 min 0 min 0 W/m 12,9 km/h (3 Bft) 68,09 %
11.02.2023 01:30 5,8 C 5,0 C 1,1 C 89 % 1035,1 hPa 0,0 l/m 0 min 0 min 0 W/m 12,9 km/h (3 Bft) 61,70 %
11.02.2023 01:32 5,8 C 5,0 C 1,1 C 89 % 1035,0 hPa 0,0 l/m 0 min 0 min 0 W/m 9,7 km/h (2 Bft) 58,70 %
11.02.2023 01:34 5,8 C 5,0 C 1,1 C 89 % 1035,0 hPa 0,0 l/m 0 min 0 min 0 W/m 9,7 km/h (2 Bft) 57,45 %
11.02.2023 01:36 5,8 C 5,0 C 1,1 C 90 % 1035,1 hPa 0,0 l/m 0 min 0 min 0 W/m 3,2 km/h (1 Bft) 59,57 %
11.02.2023 01:38 5,7 C 5,0 C 1,1 C 90 % 1035,0 hPa 0,0 l/m 0 min 0 min 0 W/m 6,4 km/h (2 Bft) 53,19 %
11.02.2023 01:40 5,7 C 5,0 C 1,1 C 90 % 1035,0 hPa 0,0 l/m 0 min 0 min 0 W/m 6,4 km/h (2 Bft) 65,96 %
11.02.2023 01:42 5,7 C 4,4 C 1,1 C 90 % 1035,1 hPa 0,0 l/m 0 min 0 min 0 W/m 6,4 km/h (2 Bft) 72,34 %
11.02.2023 01:44 5,7 C 4,4 C 1,1 C 90 % 1035,1 hPa 0,0 l/m 0 min 0 min 0 W/m 6,4 km/h (2 Bft) 65,96 %
11.02.2023 01:46 5,7 C 4,4 C 1,1 C 90 % 1035,2 hPa 0,0 l/m 0 min 0 min 0 W/m 3,2 km/h (1 Bft) 86,96 %
11.02.2023 01:48 5,6 C 4,4 C 1,1 C 90 % 1035,2 hPa 0,0 l/m 0 min 0 min 0 W/m 6,4 km/h (2 Bft) 72,34 %
11.02.2023 01:50 5,6 C 4,4 C 1,1 C 90 % 1035,2 hPa 0,0 l/m 0 min 0 min 0 W/m 9,7 km/h (2 Bft) 89,36 %
11.02.2023 01:52 5,6 C 4,4 C 1,1 C 90 % 1035,3 hPa 0,0 l/m 0 min 0 min 0 W/m 3,2 km/h (1 Bft) 97,87 %
11.02.2023 01:54 5,6 C 4,4 C 1,1 C 90 % 1035,2 hPa 0,0 l/m 0 min 0 min 0 W/m 6,4 km/h (2 Bft) 93,62 %
11.02.2023 01:56 5,6 C 4,4 C 1,1 C 90 % 1035,2 hPa 0,0 l/m 0 min 0 min 0 W/m 9,7 km/h (2 Bft) 95,74 %
11.02.2023 01:58 5,5 C 4,4 C 1,1 C 90 % 1035,2 hPa 0,0 l/m 0 min 0 min 0 W/m 6,4 km/h (2 Bft) 84,78 %
11.02.2023 02:00 5,5 C 4,4 C 1,1 C 90 % 1035,2 hPa 0,0 l/m 0 min 0 min 0 W/m 3,2 km/h (1 Bft) 82,98 %
11.02.2023 02:02 5,4 C 4,4 C 1,1 C 90 % 1035,2 hPa 0,0 l/m 0 min 0 min 0 W/m 3,2 km/h (1 Bft) 65,96 %
11.02.2023 02:04 5,4 C 4,4 C 1,1 C 90 % 1035,2 hPa 0,0 l/m 0 min 0 min 0 W/m 6,4 km/h (2 Bft) 72,34 %
11.02.2023 02:06 5,4 C 4,4 C 1,1 C 90 % 1035,0 hPa 0,0 l/m 0 min 0 min 0 W/m 6,4 km/h (2 Bft) 69,49 %
11.02.2023 02:08 5,4 C 4,4 C 0,6 C 90 % 1035,0 hPa 0,0 l/m 0 min 0 min 0 W/m 0,0 km/h (0 Bft) 45,71 %
11.02.2023 02:10 5,3 C 4,4 C 0,6 C 90 % 1035,0 hPa 0,0 l/m 0 min 0 min 0 W/m 6,4 km/h (2 Bft) 36,59 %
11.02.2023 02:17 5,3 C 4,4 C 1,1 C 90 % 1035,1 hPa 0,0 l/m 0 min 0 min 0 W/m 3,2 km/h (1 Bft) 97,14 %
11.02.2023 02:18 5,3 C 4,4 C 1,1 C 90 % 1035,1 hPa 0,0 l/m 0 min 0 min 0 W/m 6,4 km/h (2 Bft) 100,00 %
11.02.2023 02:20 5,3 C 4,4 C 1,1 C 90 % 1035,1 hPa 0,0 l/m 0 min 0 min 0 W/m 3,2 km/h (1 Bft) 100,00 %
11.02.2023 02:22 5,3 C 4,4 C 1,1 C 90 % 1035,1 hPa 0,0 l/m 0 min 0 min 0 W/m 3,2 km/h (1 Bft) 95,65 %
11.02.2023 02:24 5,3 C 4,4 C 1,1 C 91 % 1035,2 hPa 0,0 l/m 0 min 0 min 0 W/m 12,9 km/h (3 Bft) 97,87 %
11.02.2023 02:26 5,3 C 4,4 C 1,1 C 91 % 1035,2 hPa 0,0 l/m 0 min 0 min 0 W/m 12,9 km/h (3 Bft) 95,74 %
11.02.2023 02:28 5,3 C 5,0 C 1,1 C 91 % 1035,2 hPa 0,0 l/m 0 min 0 min 0 W/m 6,4 km/h (2 Bft) 97,87 %
11.02.2023 02:30 5,4 C 5,0 C 1,1 C 91 % 1035,2 hPa 0,0 l/m 0 min 0 min 0 W/m 3,2 km/h (1 Bft) 97,87 %
11.02.2023 02:32 5,4 C 5,0 C 1,1 C 91 % 1035,2 hPa 0,0 l/m 0 min 0 min 0 W/m 12,9 km/h (3 Bft) 97,87 %
11.02.2023 02:34 5,4 C 5,0 C 1,1 C 91 % 1035,2 hPa 0,0 l/m 0 min 0 min 0 W/m 9,7 km/h (2 Bft) 97,83 %
11.02.2023 02:36 5,4 C 5,0 C 1,1 C 91 % 1035,2 hPa 0,0 l/m 0 min 0 min 0 W/m 6,4 km/h (2 Bft) 95,74 %
11.02.2023 02:38 5,4 C 5,0 C 1,1 C 91 % 1035,2 hPa 0,0 l/m 0 min 0 min 0 W/m 6,4 km/h (2 Bft) 95,74 %
11.02.2023 02:40 5,4 C 5,0 C 1,1 C 91 % 1035,1 hPa 0,0 l/m 0 min 0 min 0 W/m 9,7 km/h (2 Bft) 95,74 %
11.02.2023 02:42 5,4 C 5,0 C 1,1 C 91 % 1035,2 hPa 0,0 l/m 0 min 0 min 0 W/m 9,7 km/h (2 Bft) 85,11 %
11.02.2023 02:44 5,5 C 5,0 C 1,7 C 91 % 1035,2 hPa 0,0 l/m 0 min 0 min 0 W/m 16,1 km/h (3 Bft) 76,60 %
11.02.2023 02:46 5,5 C 5,0 C 1,7 C 91 % 1035,2 hPa 0,0 l/m 0 min 0 min 0 W/m 9,7 km/h (2 Bft) 69,57 %
11.02.2023 02:48 5,5 C 5,0 C 1,7 C 91 % 1035,3 hPa 0,0 l/m 0 min 0 min 0 W/m 6,4 km/h (2 Bft) 74,47 %
11.02.2023 02:50 5,5 C 5,0 C 1,7 C 91 % 1035,4 hPa 0,0 l/m 0 min 0 min 0 W/m 6,4 km/h (2 Bft) 78,72 %
11.02.2023 02:52 5,6 C 5,0 C 1,7 C 91 % 1035,4 hPa 0,0 l/m 0 min 0 min 0 W/m 6,4 km/h (2 Bft) 78,72 %
11.02.2023 02:54 5,6 C 5,0 C 1,7 C 91 % 1035,4 hPa 0,0 l/m 0 min 0 min 0 W/m 16,1 km/h (3 Bft) 80,85 %
11.02.2023 02:56 5,6 C 5,0 C 1,7 C 91 % 1035,4 hPa 0,0 l/m 0 min 0 min 0 W/m 6,4 km/h (2 Bft) 68,09 %
11.02.2023 02:58 5,6 C 5,0 C 1,7 C 91 % 1035,3 hPa 0,0 l/m 0 min 0 min 0 W/m 6,4 km/h (2 Bft) 82,98 %
11.02.2023 03:00 5,6 C 5,0 C 1,7 C 91 % 1035,2 hPa 0,0 l/m 0 min 0 min 0 W/m 16,1 km/h (3 Bft) 69,57 %
11.02.2023 03:02 5,6 C 5,0 C 1,7 C 91 % 1035,0 hPa 0,0 l/m 0 min 0 min 0 W/m 6,4 km/h (2 Bft) 89,36 %
11.02.2023 03:04 5,6 C 5,0 C 1,7 C 91 % 1035,1 hPa 0,0 l/m 0 min 0 min 0 W/m 12,9 km/h (3 Bft) 78,72 %
11.02.2023 03:06 5,6 C 5,0 C 1,7 C 91 % 1034,9 hPa 0,0 l/m 0 min 0 min 0 W/m 16,1 km/h (3 Bft) 84,75 %
11.02.2023 03:08 5,6 C 5,0 C 1,7 C 91 % 1035,0 hPa 0,0 l/m 0 min 0 min 0 W/m 12,9 km/h (3 Bft) 91,43 %
11.02.2023 03:10 5,6 C 5,0 C 1,7 C 91 % 1035,0 hPa 0,0 l/m 0 min 0 min 0 W/m 9,7 km/h (2 Bft) 82,98 %
11.02.2023 03:12 5,6 C 5,0 C 1,7 C 91 % 1035,0 hPa 0,0 l/m 0 min 0 min 0 W/m 16,1 km/h (3 Bft) 82,61 %
11.02.2023 03:14 5,6 C 5,0 C 1,7 C 91 % 1034,8 hPa 0,0 l/m 0 min 0 min 0 W/m 6,4 km/h (2 Bft) 80,85 %
11.02.2023 03:16 5,6 C 5,0 C 1,7 C 91 % 1034,8 hPa 0,0 l/m 0 min 0 min 0 W/m 6,4 km/h (2 Bft) 82,98 %
11.02.2023 03:18 5,6 C 5,0 C 1,7 C 91 % 1034,7 hPa 0,0 l/m 0 min 0 min 0 W/m 12,9 km/h (3 Bft) 82,98 %
11.02.2023 03:20 5,6 C 5,0 C 1,7 C 91 % 1034,8 hPa 0,0 l/m 0 min 0 min 0 W/m 12,9 km/h (3 Bft) 82,98 %
11.02.2023 03:22 5,6 C 5,0 C 1,7 C 91 % 1034,8 hPa 0,0 l/m 0 min 0 min 0 W/m 9,7 km/h (2 Bft) 70,21 %
11.02.2023 03:24 5,6 C 5,0 C 1,7 C 91 % 1034,8 hPa 0,0 l/m 0 min 0 min 0 W/m 9,7 km/h (2 Bft) 78,26 %
11.02.2023 03:26 5,6 C 5,0 C 1,7 C 91 % 1034,8 hPa 0,0 l/m 0 min 0 min 0 W/m 6,4 km/h (2 Bft) 80,85 %
11.02.2023 03:28 5,6 C 5,0 C 1,7 C 91 % 1034,9 hPa 0,0 l/m 0 min 0 min 0 W/m 6,4 km/h (2 Bft) 74,47 %
11.02.2023 03:30 5,6 C 5,0 C 1,7 C 91 % 1034,9 hPa 0,0 l/m 0 min 0 min 0 W/m 6,4 km/h (2 Bft) 87,23 %
11.02.2023 03:32 5,6 C 5,0 C 1,7 C 91 % 1034,9 hPa 0,0 l/m 0 min 0 min 0 W/m 6,4 km/h (2 Bft) 82,98 %
11.02.2023 03:34 5,6 C 5,0 C 1,7 C 91 % 1034,8 hPa 0,0 l/m 0 min 0 min 0 W/m 12,9 km/h (3 Bft) 85,11 %
11.02.2023 03:36 5,6 C 5,0 C 1,7 C 91 % 1034,7 hPa 0,0 l/m 0 min 0 min 0 W/m 12,9 km/h (3 Bft) 68,09 %
11.02.2023 03:38 5,6 C 5,0 C 1,7 C 91 % 1034,8 hPa 0,0 l/m 0 min 0 min 0 W/m 6,4 km/h (2 Bft) 91,30 %
11.02.2023 03:40 5,6 C 5,0 C 1,7 C 91 % 1034,8 hPa 0,0 l/m 0 min 0 min 0 W/m 6,4 km/h (2 Bft) 85,11 %
11.02.2023 03:42 5,6 C 5,0 C 1,7 C 91 % 1034,8 hPa 0,0 l/m 0 min 0 min 0 W/m 12,9 km/h (3 Bft) 65,96 %
11.02.2023 03:44 5,6 C 5,0 C 1,7 C 91 % 1034,8 hPa 0,0 l/m 0 min 0 min 0 W/m 9,7 km/h (2 Bft) 78,72 %
11.02.2023 03:46 5,6 C 5,0 C 1,7 C 91 % 1034,8 hPa 0,0 l/m 0 min 0 min 0 W/m 12,9 km/h (3 Bft) 61,70 %
11.02.2023 03:48 5,6 C 5,0 C 1,7 C 91 % 1034,7 hPa 0,0 l/m 0 min 0 min 0 W/m 16,1 km/h (3 Bft) 44,68 %
11.02.2023 03:50 5,6 C 5,0 C 1,7 C 91 % 1034,8 hPa 0,0 l/m 0 min 0 min 0 W/m 19,3 km/h (3 Bft) 47,83 %
11.02.2023 03:52 5,7 C 5,0 C 1,7 C 91 % 1034,8 hPa 0,0 l/m 0 min 0 min 0 W/m 16,1 km/h (3 Bft) 40,43 %
11.02.2023 03:54 5,6 C 5,0 C 1,7 C 91 % 1034,8 hPa 0,0 l/m 0 min 0 min 0 W/m 9,7 km/h (2 Bft) 48,94 %
11.02.2023 03:56 5,7 C 5,0 C 1,7 C 91 % 1034,9 hPa 0,0 l/m 0 min 0 min 0 W/m 12,9 km/h (3 Bft) 48,94 %
11.02.2023 03:58 5,7 C 5,0 C 1,7 C 91 % 1034,8 hPa 0,0 l/m 0 min 0 min 0 W/m 12,9 km/h (3 Bft) 55,32 %
11.02.2023 04:00 5,7 C 5,0 C 1,7 C 91 % 1034,8 hPa 0,0 l/m 0 min 0 min 0 W/m 6,4 km/h (2 Bft) 77,78 %
11.02.2023 04:02 5,6 C 5,0 C 1,7 C 91 % 1034,7 hPa 0,0 l/m 0 min 0 min 0 W/m 9,7 km/h (2 Bft) 78,72 %
11.02.2023 04:04 5,6 C 5,0 C 1,7 C 91 % 1034,8 hPa 0,0 l/m 0 min 0 min 0 W/m 16,1 km/h (3 Bft) 78,72 %
11.02.2023 04:06 5,6 C 5,0 C 1,7 C 91 % 1034,9 hPa 0,0 l/m 0 min 0 min 0 W/m 9,7 km/h (2 Bft) 46,81 %
11.02.2023 04:08 5,6 C 5,0 C 1,7 C 91 % 1034,9 hPa 0,0 l/m 0 min 0 min 0 W/m 9,7 km/h (2 Bft) 65,96 %
11.02.2023 04:10 5,6 C 5,0 C 1,7 C 91 % 1034,9 hPa 0,0 l/m 0 min 0 min 0 W/m 6,4 km/h (2 Bft) 42,55 %
11.02.2023 04:12 5,7 C 5,0 C 1,7 C 91 % 1034,8 hPa 0,0 l/m 0 min 0 min 0 W/m 9,7 km/h (2 Bft) 42,55 %
11.02.2023 04:14 5,7 C 5,0 C 1,7 C 91 % 1034,8 hPa 0,0 l/m 0 min 0 min 0 W/m 12,9 km/h (3 Bft) 50,00 %
11.02.2023 04:16 5,7 C 5,0 C 1,7 C 91 % 1034,7 hPa 0,0 l/m 0 min 0 min 0 W/m 16,1 km/h (3 Bft) 74,47 %
11.02.2023 04:18 5,7 C 5,0 C 1,7 C 91 % 1034,6 hPa 0,0 l/m 0 min 0 min 0 W/m 19,3 km/h (3 Bft) 70,21 %
11.02.2023 04:20 5,7 C 5,0 C 1,7 C 91 % 1034,5 hPa 0,0 l/m 0 min 0 min 0 W/m 12,9 km/h (3 Bft) 70,21 %
11.02.2023 04:22 5,7 C 5,0 C 1,7 C 91 % 1034,5 hPa 0,0 l/m 0 min 0 min 0 W/m 19,3 km/h (3 Bft) 68,09 %
11.02.2023 04:24 5,7 C 5,0 C 1,7 C 91 % 1034,6 hPa 0,0 l/m 0 min 0 min 0 W/m 16,1 km/h (3 Bft) 82,98 %
11.02.2023 04:26 5,7 C 5,0 C 1,7 C 91 % 1034,5 hPa 0,0 l/m 0 min 0 min 0 W/m 16,1 km/h (3 Bft) 44,19 %
11.02.2023 04:28 5,7 C 5,0 C 1,7 C 91 % 1034,5 hPa 0,0 l/m 0 min 0 min 0 W/m 9,7 km/h (2 Bft) 34,78 %
11.02.2023 04:30 5,7 C 5,0 C 1,7 C 91 % 1034,5 hPa 0,0 l/m 0 min 0 min 0 W/m 16,1 km/h (3 Bft) 53,19 %
11.02.2023 04:32 5,7 C 5,0 C 1,7 C 91 % 1034,5 hPa 0,0 l/m 0 min 0 min 0 W/m 16,1 km/h (3 Bft) 68,09 %
11.02.2023 04:34 5,7 C 5,0 C 1,7 C 91 % 1034,4 hPa 0,0 l/m 0 min 0 min 0 W/m 19,3 km/h (3 Bft) 72,34 %
11.02.2023 04:36 5,7 C 5,0 C 1,7 C 91 % 1034,4 hPa 0,0 l/m 0 min 0 min 0 W/m 9,7 km/h (2 Bft) 80,85 %
11.02.2023 04:38 5,7 C 5,0 C 1,7 C 92 % 1034,4 hPa 0,0 l/m 0 min 0 min 0 W/m 12,9 km/h (3 Bft) 68,09 %
11.02.2023 04:40 5,7 C 5,0 C 1,7 C 91 % 1034,4 hPa 0,0 l/m 0 min 0 min 0 W/m 12,9 km/h (3 Bft) 78,72 %
11.02.2023 04:45 5,7 C 5,0 C 1,7 C 91 % 1034,3 hPa 0,0 l/m 0 min 0 min 0 W/m 12,9 km/h (3 Bft) 80,00 %
11.02.2023 04:46 5,7 C 5,0 C 1,7 C 91 % 1034,3 hPa 0,0 l/m 0 min 0 min 0 W/m 12,9 km/h (3 Bft) 86,96 %
11.02.2023 04:48 5,7 C 5,0 C 1,7 C 92 % 1034,4 hPa 0,0 l/m 0 min 0 min 0 W/m 12,9 km/h (3 Bft) 80,85 %
11.02.2023 04:50 5,7 C 5,0 C 1,7 C 92 % 1034,5 hPa 0,0 l/m 0 min 0 min 0 W/m 19,3 km/h (3 Bft) 76,60 %
11.02.2023 04:52 5,7 C 5,0 C 1,7 C 92 % 1034,5 hPa 0,0 l/m 0 min 0 min 0 W/m 12,9 km/h (3 Bft) 86,96 %
11.02.2023 04:54 5,7 C 5,0 C 1,7 C 92 % 1034,5 hPa 0,0 l/m 0 min 0 min 0 W/m 12,9 km/h (3 Bft) 91,49 %
11.02.2023 04:56 5,7 C 5,0 C 1,7 C 92 % 1034,5 hPa 0,0 l/m 0 min 0 min 0 W/m 12,9 km/h (3 Bft) 87,23 %
11.02.2023 04:58 5,7 C 5,0 C 1,7 C 92 % 1034,5 hPa 0,0 l/m 0 min 0 min 0 W/m 12,9 km/h (3 Bft) 97,87 %
11.02.2023 05:00 5,7 C 5,0 C 1,7 C 92 % 1034,5 hPa 0,0 l/m 0 min 0 min 0 W/m 16,1 km/h (3 Bft) 100,00 %
11.02.2023 05:02 5,7 C 5,0 C 1,7 C 92 % 1034,5 hPa 0,0 l/m 0 min 0 min 0 W/m 16,1 km/h (3 Bft) 97,87 %
11.02.2023 05:04 5,7 C 5,0 C 1,7 C 92 % 1034,6 hPa 0,0 l/m 0 min 0 min 0 W/m 16,1 km/h (3 Bft) 100,00 %
11.02.2023 05:06 5,7 C 5,0 C 1,7 C 92 % 1034,4 hPa 0,0 l/m 0 min 0 min 0 W/m 9,7 km/h (2 Bft) 100,00 %
11.02.2023 05:08 5,7 C 5,0 C 1,7 C 92 % 1034,5 hPa 0,0 l/m 0 min 0 min 0 W/m 19,3 km/h (3 Bft) 94,87 %
11.02.2023 05:10 5,7 C 5,0 C 1,7 C 92 % 1034,4 hPa 0,0 l/m 0 min 0 min 0 W/m 16,1 km/h (3 Bft) 100,00 %
11.02.2023 05:12 5,7 C 5,0 C 1,7 C 92 % 1034,3 hPa 0,0 l/m 0 min 0 min 0 W/m 12,9 km/h (3 Bft) 100,00 %
11.02.2023 05:14 5,7 C 5,0 C 1,7 C 92 % 1034,4 hPa 0,0 l/m 0 min 0 min 0 W/m 12,9 km/h (3 Bft) 97,87 %
11.02.2023 05:16 5,7 C 5,0 C 1,7 C 92 % 1034,4 hPa 0,0 l/m 0 min 0 min 0 W/m 16,1 km/h (3 Bft) 100,00 %
11.02.2023 05:18 5,7 C 5,0 C 1,7 C 92 % 1034,4 hPa 0,0 l/m 0 min 0 min 0 W/m 9,7 km/h (2 Bft) 97,87 %
11.02.2023 05:20 5,7 C 5,0 C 1,7 C 92 % 1034,4 hPa 0,0 l/m 0 min 0 min 0 W/m 6,4 km/h (2 Bft) 95,74 %
11.02.2023 05:22 5,6 C 5,0 C 1,7 C 92 % 1034,4 hPa 0,0 l/m 0 min 0 min 0 W/m 9,7 km/h (2 Bft) 100,00 %
11.02.2023 05:24 5,7 C 5,0 C 1,7 C 92 % 1034,3 hPa 0,0 l/m 0 min 0 min 0 W/m 6,4 km/h (2 Bft) 95,74 %
11.02.2023 05:26 5,6 C 5,0 C 1,7 C 92 % 1034,2 hPa 0,0 l/m 0 min 0 min 0 W/m 6,4 km/h (2 Bft) 100,00 %
11.02.2023 05:28 5,6 C 5,0 C 1,7 C 92 % 1034,2 hPa 0,0 l/m 0 min 0 min 0 W/m 19,3 km/h (3 Bft) 100,00 %
11.02.2023 05:30 5,6 C 5,0 C 1,7 C 93 % 1034,2 hPa 0,0 l/m 0 min 0 min 0 W/m 16,1 km/h (3 Bft) 97,87 %
11.02.2023 05:32 5,6 C 5,0 C 1,7 C 93 % 1034,3 hPa 0,0 l/m 0 min 0 min 0 W/m 19,3 km/h (3 Bft) 97,87 %
11.02.2023 05:34 5,6 C 5,0 C 1,7 C 93 % 1034,2 hPa 0,0 l/m 0 min 0 min 0 W/m 12,9 km/h (3 Bft) 100,00 %
11.02.2023 05:36 5,6 C 5,0 C 1,7 C 93 % 1034,2 hPa 0,0 l/m 0 min 0 min 0 W/m 6,4 km/h (2 Bft) 100,00 %
11.02.2023 05:38 5,6 C 5,0 C 1,7 C 93 % 1034,3 hPa 0,0 l/m 0 min 0 min 0 W/m 9,7 km/h (2 Bft) 100,00 %
11.02.2023 05:40 5,6 C 5,0 C 1,7 C 93 % 1034,3 hPa 0,0 l/m 0 min 0 min 0 W/m 16,1 km/h (3 Bft) 95,74 %
11.02.2023 05:42 5,6 C 5,0 C 1,7 C 93 % 1034,4 hPa 0,0 l/m 0 min 0 min 0 W/m 12,9 km/h (3 Bft) 100,00 %
11.02.2023 05:44 5,6 C 5,0 C 1,7 C 93 % 1034,5 hPa 0,0 l/m 0 min 0 min 0 W/m 16,1 km/h (3 Bft) 95,74 %
11.02.2023 05:46 5,6 C 5,0 C 1,7 C 93 % 1034,5 hPa 0,0 l/m 0 min 0 min 0 W/m 19,3 km/h (3 Bft) 97,87 %
11.02.2023 05:48 5,6 C 5,0 C 1,7 C 93 % 1034,5 hPa 0,0 l/m 0 min 0 min 0 W/m 22,5 km/h (4 Bft) 95,65 %
11.02.2023 05:50 5,6 C 5,0 C 1,7 C 93 % 1034,5 hPa 0,0 l/m 0 min 0 min 0 W/m 12,9 km/h (3 Bft) 97,87 %
11.02.2023 05:52 5,6 C 5,0 C 1,7 C 93 % 1034,5 hPa 0,0 l/m 0 min 0 min 0 W/m 12,9 km/h (3 Bft) 97,87 %
11.02.2023 05:54 5,6 C 5,0 C 1,7 C 93 % 1034,5 hPa 0,0 l/m 0 min 0 min 0 W/m 9,7 km/h (2 Bft) 97,87 %
11.02.2023 05:56 5,6 C 5,0 C 1,7 C 93 % 1034,5 hPa 0,0 l/m 0 min 0 min 0 W/m 16,1 km/h (3 Bft) 97,87 %
11.02.2023 05:58 5,6 C 5,0 C 1,7 C 93 % 1034,6 hPa 0,0 l/m 0 min 0 min 0 W/m 9,7 km/h (2 Bft) 97,87 %
11.02.2023 06:00 5,6 C 5,0 C 1,7 C 93 % 1034,6 hPa 0,0 l/m 0 min 0 min 0 W/m 6,4 km/h (2 Bft) 97,87 %
11.02.2023 06:02 5,6 C 5,0 C 1,7 C 93 % 1034,5 hPa 0,0 l/m 0 min 0 min 0 W/m 12,9 km/h (3 Bft) 95,65 %
11.02.2023 06:04 5,6 C 5,0 C 1,7 C 93 % 1034,5 hPa 0,0 l/m 0 min 0 min 0 W/m 9,7 km/h (2 Bft) 97,87 %
11.02.2023 06:07 5,6 C 5,0 C 1,7 C 93 % 1034,4 hPa 0,0 l/m 0 min 0 min 0 W/m 12,9 km/h (3 Bft) 93,15 %
11.02.2023 06:08 5,6 C 5,0 C 1,7 C 93 % 1034,4 hPa 0,0 l/m 0 min 0 min 0 W/m 9,7 km/h (2 Bft) 95,65 %
11.02.2023 06:12 5,6 C 5,0 C 1,7 C 93 % 1034,4 hPa 0,0 l/m 0 min 0 min 0 W/m 16,1 km/h (3 Bft) 96,23 %
11.02.2023 06:14 5,6 C 5,0 C 1,7 C 93 % 1034,4 hPa 0,0 l/m 0 min 0 min 0 W/m 6,4 km/h (2 Bft) 95,74 %
11.02.2023 06:16 5,6 C 5,0 C 1,7 C 94 % 1034,3 hPa 0,0 l/m 0 min 0 min 0 W/m 12,9 km/h (3 Bft) 95,74 %
11.02.2023 06:18 5,6 C 5,0 C 1,7 C 94 % 1034,4 hPa 0,0 l/m 0 min 0 min 0 W/m 6,4 km/h (2 Bft) 95,65 %
11.02.2023 06:20 5,6 C 5,0 C 1,7 C 94 % 1034,4 hPa 0,0 l/m 0 min 0 min 0 W/m 6,4 km/h (2 Bft) 95,74 %
11.02.2023 06:22 5,6 C 5,0 C 1,7 C 94 % 1034,4 hPa 0,0 l/m 0 min 0 min 0 W/m 12,9 km/h (3 Bft) 95,74 %
11.02.2023 06:24 5,6 C 5,0 C 1,7 C 94 % 1034,4 hPa 0,0 l/m 0 min 0 min 0 W/m 6,4 km/h (2 Bft) 95,74 %
11.02.2023 06:26 5,6 C 5,0 C 1,7 C 94 % 1034,5 hPa 0,0 l/m 0 min 0 min 0 W/m 6,4 km/h (2 Bft) 97,87 %
11.02.2023 06:28 5,6 C 5,0 C 1,7 C 94 % 1034,4 hPa 0,0 l/m 0 min 0 min 0 W/m 6,4 km/h (2 Bft) 97,87 %
11.02.2023 06:30 5,6 C 5,0 C 1,7 C 94 % 1034,4 hPa 0,0 l/m 0 min 0 min 0 W/m 6,4 km/h (2 Bft) 97,87 %
11.02.2023 06:32 5,6 C 5,0 C 1,7 C 94 % 1034,4 hPa 0,0 l/m 0 min 0 min 0 W/m 3,2 km/h (1 Bft) 97,83 %
11.02.2023 06:34 5,6 C 5,0 C 1,7 C 94 % 1034,3 hPa 0,0 l/m 0 min 0 min 0 W/m 16,1 km/h (3 Bft) 97,87 %
11.02.2023 06:36 5,6 C 5,0 C 1,7 C 94 % 1034,3 hPa 0,0 l/m 0 min 0 min 0 W/m 12,9 km/h (3 Bft) 97,87 %
11.02.2023 06:38 5,6 C 5,0 C 1,7 C 94 % 1034,3 hPa 0,0 l/m 0 min 0 min 0 W/m 6,4 km/h (2 Bft) 95,74 %
11.02.2023 06:40 5,6 C 5,0 C 1,7 C 94 % 1034,3 hPa 0,0 l/m 0 min 0 min 0 W/m 9,7 km/h (2 Bft) 95,74 %
11.02.2023 06:42 5,6 C 5,0 C 1,7 C 94 % 1034,3 hPa 0,0 l/m 0 min 0 min 0 W/m 3,2 km/h (1 Bft) 97,87 %
11.02.2023 06:44 5,5 C 5,0 C 1,7 C 94 % 1034,3 hPa 0,0 l/m 0 min 0 min 0 W/m 6,4 km/h (2 Bft) 97,83 %
11.02.2023 06:46 5,5 C 5,0 C 1,7 C 94 % 1034,2 hPa 0,0 l/m 0 min 0 min 0 W/m 6,4 km/h (2 Bft) 100,00 %
11.02.2023 06:48 5,5 C 5,0 C 1,7 C 94 % 1034,2 hPa 0,0 l/m 0 min 0 min 0 W/m 12,9 km/h (3 Bft) 100,00 %
11.02.2023 06:50 5,5 C 5,0 C 1,7 C 94 % 1034,2 hPa 0,0 l/m 0 min 0 min 0 W/m 6,4 km/h (2 Bft) 100,00 %
11.02.2023 06:52 5,5 C 5,0 C 1,7 C 94 % 1034,1 hPa 0,0 l/m 0 min 0 min 0 W/m 9,7 km/h (2 Bft) 97,87 %
11.02.2023 06:54 5,5 C 5,0 C 1,7 C 94 % 1034,2 hPa 0,0 l/m 0 min 0 min 0 W/m 16,1 km/h (3 Bft) 95,74 %
11.02.2023 06:56 5,5 C 5,0 C 1,7 C 94 % 1034,1 hPa 0,0 l/m 0 min 0 min 0 W/m 9,7 km/h (2 Bft) 97,87 %
11.02.2023 06:58 5,5 C 5,0 C 1,7 C 94 % 1034,2 hPa 0,0 l/m 0 min 0 min 0 W/m 6,4 km/h (2 Bft) 97,83 %
11.02.2023 07:00 5,5 C 5,0 C 1,7 C 94 % 1034,2 hPa 0,0 l/m 0 min 0 min 0 W/m 12,9 km/h (3 Bft) 95,74 %
11.02.2023 07:02 5,5 C 5,0 C 1,7 C 94 % 1034,2 hPa 0,0 l/m 0 min 0 min 0 W/m 12,9 km/h (3 Bft) 97,87 %
11.02.2023 07:04 5,5 C 5,0 C 1,7 C 94 % 1034,2 hPa 0,0 l/m 0 min 0 min 0 W/m 3,2 km/h (1 Bft) 97,87 %
11.02.2023 07:06 5,5 C 5,0 C 1,7 C 94 % 1034,2 hPa 0,0 l/m 0 min 0 min 0 W/m 6,4 km/h (2 Bft) 98,31 %
11.02.2023 07:08 5,5 C 5,0 C 1,7 C 94 % 1034,3 hPa 0,0 l/m 0 min 0 min 0 W/m 9,7 km/h (2 Bft) 97,14 %
11.02.2023 07:10 5,5 C 5,0 C 1,7 C 94 % 1034,2 hPa 0,0 l/m 0 min 0 min 0 W/m 16,1 km/h (3 Bft) 97,87 %
11.02.2023 07:12 5,5 C 5,0 C 1,7 C 94 % 1034,2 hPa 0,0 l/m 0 min 0 min 0 W/m 6,4 km/h (2 Bft) 95,65 %
11.02.2023 07:14 5,5 C 5,0 C 1,7 C 94 % 1034,3 hPa 0,0 l/m 0 min 0 min 0 W/m 9,7 km/h (2 Bft) 97,87 %
11.02.2023 07:16 5,5 C 5,0 C 1,7 C 94 % 1034,3 hPa 0,0 l/m 0 min 0 min 0 W/m 9,7 km/h (2 Bft) 95,74 %
11.02.2023 07:18 5,5 C 5,0 C 1,7 C 94 % 1034,3 hPa 0,0 l/m 0 min 0 min 0 W/m 6,4 km/h (2 Bft) 95,74 %
11.02.2023 07:20 5,5 C 5,0 C 1,7 C 94 % 1034,2 hPa 0,0 l/m 0 min 0 min 0 W/m 6,4 km/h (2 Bft) 97,87 %
11.02.2023 07:22 5,5 C 5,0 C 1,7 C 94 % 1034,2 hPa 0,0 l/m 0 min 0 min 0 W/m 16,1 km/h (3 Bft) 97,87 %
11.02.2023 07:24 5,5 C 5,0 C 1,7 C 94 % 1034,2 hPa 0,0 l/m 0 min 0 min 0 W/m 12,9 km/h (3 Bft) 97,87 %
11.02.2023 07:26 5,6 C 5,0 C 1,7 C 94 % 1034,2 hPa 0,0 l/m 0 min 0 min 0 W/m 6,4 km/h (2 Bft) 97,83 %
11.02.2023 07:28 5,6 C 5,0 C 1,7 C 94 % 1034,3 hPa 0,0 l/m 0 min 0 min 0 W/m 16,1 km/h (3 Bft) 95,74 %
11.02.2023 07:30 5,6 C 5,0 C 1,7 C 94 % 1034,2 hPa 0,0 l/m 0 min 0 min 0 W/m 3,2 km/h (1 Bft) 95,74 %
11.02.2023 07:32 5,6 C 5,0 C 1,7 C 94 % 1034,3 hPa 0,0 l/m 0 min 0 min 0 W/m 12,9 km/h (3 Bft) 97,87 %
11.02.2023 07:34 5,6 C 5,0 C 1,7 C 94 % 1034,3 hPa 0,0 l/m 0 min 0 min 0 W/m 12,9 km/h (3 Bft) 95,74 %
11.02.2023 07:36 5,6 C 5,0 C 1,7 C 94 % 1034,4 hPa 0,0 l/m 0 min 0 min 0 W/m 9,7 km/h (2 Bft) 97,87 %
11.02.2023 07:38 5,6 C 5,0 C 1,7 C 94 % 1034,3 hPa 0,0 l/m 0 min 0 min 0 W/m 3,2 km/h (1 Bft) 97,83 %
11.02.2023 07:40 5,6 C 5,0 C 1,7 C 95 % 1034,4 hPa 0,0 l/m 0 min 0 min 0 W/m 9,7 km/h (2 Bft) 97,87 %
11.02.2023 07:42 5,6 C 5,0 C 1,7 C 95 % 1034,4 hPa 0,0 l/m 0 min 0 min 0 W/m 6,4 km/h (2 Bft) 97,87 %
11.02.2023 07:44 5,6 C 5,0 C 1,7 C 95 % 1034,4 hPa 0,0 l/m 0 min 0 min 0 W/m 12,9 km/h (3 Bft) 100,00 %
11.02.2023 07:46 5,6 C 5,0 C 1,7 C 95 % 1034,4 hPa 0,0 l/m 0 min 0 min 0 W/m 6,4 km/h (2 Bft) 100,00 %
11.02.2023 07:48 5,6 C 5,0 C 1,7 C 95 % 1034,4 hPa 0,0 l/m 0 min 0 min 0 W/m 6,4 km/h (2 Bft) 97,87 %
11.02.2023 07:50 5,6 C 5,0 C 1,7 C 95 % 1034,4 hPa 0,0 l/m 0 min 0 min 0 W/m 16,1 km/h (3 Bft) 97,87 %
11.02.2023 07:52 5,6 C 5,0 C 1,7 C 95 % 1034,4 hPa 0,0 l/m 0 min 0 min 0 W/m 9,7 km/h (2 Bft) 100,00 %
11.02.2023 07:54 5,6 C 5,0 C 1,7 C 95 % 1034,4 hPa 0,0 l/m 0 min 0 min 0 W/m 12,9 km/h (3 Bft) 100,00 %
11.02.2023 07:56 5,6 C 5,0 C 1,7 C 95 % 1034,4 hPa 0,0 l/m 0 min 0 min 0 W/m 6,4 km/h (2 Bft) 95,74 %
11.02.2023 07:58 5,6 C 5,0 C 1,7 C 95 % 1034,5 hPa 0,0 l/m 0 min 0 min 0 W/m 12,9 km/h (3 Bft) 97,87 %
11.02.2023 08:00 5,6 C 5,0 C 1,7 C 95 % 1034,4 hPa 0,0 l/m 0 min 0 min 0 W/m 12,9 km/h (3 Bft) 100,00 %
11.02.2023 08:02 5,6 C 5,0 C 1,7 C 95 % 1034,5 hPa 0,0 l/m 0 min 0 min 0 W/m 3,2 km/h (1 Bft) 97,87 %
11.02.2023 08:04 5,6 C 5,0 C 1,7 C 95 % 1034,4 hPa 0,0 l/m 0 min 0 min 0 W/m 12,9 km/h (3 Bft) 97,83 %
11.02.2023 08:06 5,6 C 5,0 C 1,7 C 95 % 1034,4 hPa 0,0 l/m 0 min 0 min 0 W/m 12,9 km/h (3 Bft) 100,00 %
11.02.2023 08:08 5,6 C 5,0 C 1,7 C 95 % 1034,4 hPa 0,0 l/m 0 min 0 min 0 W/m 19,3 km/h (3 Bft) 91,43 %
11.02.2023 08:10 5,6 C 5,0 C 1,7 C 95 % 1034,4 hPa 0,0 l/m 0 min 0 min 0 W/m 12,9 km/h (3 Bft) 98,00 %
11.02.2023 08:12 5,6 C 5,0 C 1,7 C 95 % 1034,4 hPa 0,0 l/m 0 min 0 min 0 W/m 19,3 km/h (3 Bft) 97,37 %
11.02.2023 08:14 5,6 C 5,0 C 1,7 C 95 % 1034,5 hPa 0,0 l/m 0 min 0 min 0 W/m 16,1 km/h (3 Bft) 98,21 %
11.02.2023 08:16 5,6 C 5,0 C 1,7 C 95 % 1034,4 hPa 0,0 l/m 0 min 0 min 0 W/m 12,9 km/h (3 Bft) 94,74 %
11.02.2023 08:18 5,6 C 5,0 C 1,7 C 95 % 1034,5 hPa 0,0 l/m 0 min 0 min 0 W/m 6,4 km/h (2 Bft) 96,36 %
11.02.2023 08:20 5,6 C 5,0 C 1,7 C 95 % 1034,5 hPa 0,0 l/m 0 min 0 min 0 W/m 6,4 km/h (2 Bft) 94,00 %
11.02.2023 08:22 5,6 C 5,0 C 1,7 C 95 % 1034,5 hPa 0,0 l/m 0 min 0 min 0 W/m 16,1 km/h (3 Bft) 95,74 %
11.02.2023 08:24 5,6 C 5,0 C 1,7 C 95 % 1034,5 hPa 0,0 l/m 0 min 0 min 0 W/m 12,9 km/h (3 Bft) 95,74 %
11.02.2023 08:26 5,6 C 5,0 C 1,7 C 95 % 1034,5 hPa 0,0 l/m 0 min 0 min 0 W/m 12,9 km/h (3 Bft) 97,14 %
11.02.2023 08:28 5,6 C 5,0 C 1,7 C 95 % 1034,5 hPa 0,0 l/m 0 min 0 min 0 W/m 3,2 km/h (1 Bft) 94,64 %
11.02.2023 08:30 5,7 C 5,0 C 1,7 C 95 % 1034,5 hPa 0,0 l/m 0 min 0 min 1 W/m 9,7 km/h (2 Bft) 96,15 %
11.02.2023 08:32 5,7 C 5,0 C 1,7 C 95 % 1034,5 hPa 0,0 l/m 0 min 0 min 5 W/m 9,7 km/h (2 Bft) 95,71 %
11.02.2023 08:34 5,7 C 5,0 C 1,7 C 95 % 1034,5 hPa 0,0 l/m 0 min 0 min 5 W/m 16,1 km/h (3 Bft) 94,29 %
11.02.2023 08:36 5,7 C 5,0 C 1,7 C 95 % 1034,5 hPa 0,0 l/m 0 min 0 min 5 W/m 12,9 km/h (3 Bft) 96,61 %
11.02.2023 08:38 5,7 C 5,0 C 1,7 C 95 % 1034,5 hPa 0,0 l/m 0 min 0 min 5 W/m 6,4 km/h (2 Bft) 94,29 %
11.02.2023 08:40 5,7 C 5,0 C 1,7 C 95 % 1034,6 hPa 0,0 l/m 0 min 0 min 5 W/m 3,2 km/h (1 Bft) 94,83 %
11.02.2023 08:42 5,7 C 5,0 C 1,7 C 95 % 1034,6 hPa 0,0 l/m 0 min 0 min 5 W/m 6,4 km/h (2 Bft) 94,44 %
11.02.2023 08:44 5,7 C 5,0 C 1,7 C 95 % 1034,7 hPa 0,0 l/m 0 min 0 min 6 W/m 12,9 km/h (3 Bft) 98,28 %
11.02.2023 08:46 5,7 C 5,0 C 1,7 C 95 % 1034,8 hPa 0,0 l/m 0 min 0 min 6 W/m 16,1 km/h (3 Bft) 97,14 %
11.02.2023 08:48 5,7 C 5,0 C 1,7 C 95 % 1034,8 hPa 0,0 l/m 0 min 0 min 7 W/m 16,1 km/h (3 Bft) 98,31 %
11.02.2023 08:50 5,7 C 5,0 C 1,7 C 95 % 1034,9 hPa 0,0 l/m 0 min 0 min 7 W/m 6,4 km/h (2 Bft) 97,87 %
11.02.2023 08:52 5,7 C 5,0 C 1,7 C 95 % 1034,9 hPa 0,0 l/m 0 min 0 min 7 W/m 9,7 km/h (2 Bft) 97,14 %
11.02.2023 08:54 5,7 C 5,0 C 1,7 C 95 % 1034,9 hPa 0,0 l/m 0 min 0 min 7 W/m 9,7 km/h (2 Bft) 96,55 %
11.02.2023 08:56 5,7 C 5,0 C 2,2 C 95 % 1034,9 hPa 0,0 l/m 0 min 0 min 9 W/m 6,4 km/h (2 Bft) 97,14 %
11.02.2023 08:58 5,7 C 5,0 C 2,2 C 95 % 1034,9 hPa 0,0 l/m 0 min 0 min 9 W/m 12,9 km/h (3 Bft) 97,87 %
11.02.2023 09:00 5,7 C 5,0 C 2,2 C 95 % 1034,9 hPa 0,0 l/m 0 min 0 min 9 W/m 12,9 km/h (3 Bft) 100,00 %
11.02.2023 09:02 5,7 C 5,0 C 2,2 C 95 % 1034,9 hPa 0,0 l/m 0 min 0 min 11 W/m 6,4 km/h (2 Bft) 100,00 %
11.02.2023 09:04 5,8 C 5,0 C 2,2 C 95 % 1034,9 hPa 0,0 l/m 0 min 0 min 12 W/m 3,2 km/h (1 Bft) 100,00 %
11.02.2023 09:06 5,8 C 5,0 C 2,2 C 95 % 1034,9 hPa 0,0 l/m 0 min 0 min 12 W/m 6,4 km/h (2 Bft) 100,00 %
11.02.2023 09:08 5,8 C 5,0 C 2,2 C 95 % 1034,9 hPa 0,0 l/m 0 min 0 min 12 W/m 6,4 km/h (2 Bft) 20,00 %
11.02.2023 09:10 5,8 C 5,0 C 2,2 C 95 % 1034,9 hPa 0,0 l/m 0 min 0 min 13 W/m 12,9 km/h (3 Bft) 100,00 %
11.02.2023 09:12 5,8 C 5,0 C 2,2 C 95 % 1034,9 hPa 0,0 l/m 0 min 0 min 14 W/m 6,4 km/h (2 Bft) 100,00 %
11.02.2023 09:14 5,8 C 5,0 C 2,2 C 95 % 1034,8 hPa 0,0 l/m 0 min 0 min 16 W/m 12,9 km/h (3 Bft) 100,00 %
11.02.2023 09:16 5,8 C 5,6 C 2,2 C 95 % 1034,9 hPa 0,0 l/m 0 min 0 min 16 W/m 6,4 km/h (2 Bft) 100,00 %
11.02.2023 09:18 5,8 C 5,6 C 2,2 C 95 % 1034,8 hPa 0,0 l/m 0 min 0 min 19 W/m 6,4 km/h (2 Bft) 100,00 %
11.02.2023 09:20 5,8 C 5,6 C 2,2 C 95 % 1034,9 hPa 0,0 l/m 0 min 0 min 20 W/m 9,7 km/h (2 Bft) 100,00 %
11.02.2023 09:22 5,8 C 5,6 C 2,2 C 95 % 1034,9 hPa 0,0 l/m 0 min 0 min 22 W/m 3,2 km/h (1 Bft) 100,00 %
11.02.2023 09:24 5,8 C 5,6 C 2,2 C 95 % 1034,9 hPa 0,0 l/m 0 min 0 min 24 W/m 6,4 km/h (2 Bft) 100,00 %
11.02.2023 09:26 5,8 C 5,6 C 2,2 C 95 % 1034,9 hPa 0,0 l/m 0 min 0 min 25 W/m 12,9 km/h (3 Bft) 100,00 %
11.02.2023 09:28 5,8 C 5,6 C 2,2 C 95 % 1034,9 hPa 0,0 l/m 0 min 0 min 30 W/m 6,4 km/h (2 Bft) 100,00 %
11.02.2023 09:30 5,8 C 5,6 C 2,2 C 95 % 1035,0 hPa 0,0 l/m 0 min 0 min 34 W/m 9,7 km/h (2 Bft) 97,87 %
11.02.2023 09:32 5,9 C 5,6 C 2,2 C 95 % 1034,9 hPa 0,0 l/m 0 min 0 min 34 W/m 6,4 km/h (2 Bft) 100,00 %
11.02.2023 09:34 5,9 C 5,6 C 2,2 C 95 % 1035,0 hPa 0,0 l/m 0 min 0 min 38 W/m 12,9 km/h (3 Bft) 100,00 %
11.02.2023 09:36 5,9 C 5,6 C 2,2 C 95 % 1034,9 hPa 0,0 l/m 0 min 0 min 40 W/m 6,4 km/h (2 Bft) 100,00 %
11.02.2023 09:38 5,9 C 5,6 C 2,2 C 95 % 1035,0 hPa 0,0 l/m 0 min 0 min 38 W/m 6,4 km/h (2 Bft) 100,00 %
11.02.2023 09:40 5,9 C 5,6 C 2,2 C 95 % 1035,0 hPa 0,0 l/m 0 min 0 min 38 W/m 3,2 km/h (1 Bft) 100,00 %
11.02.2023 09:42 5,9 C 5,6 C 2,2 C 95 % 1035,0 hPa 0,0 l/m 0 min 0 min 33 W/m 6,4 km/h (2 Bft) 100,00 %
11.02.2023 09:44 5,9 C 5,6 C 2,2 C 96 % 1035,0 hPa 0,0 l/m 0 min 0 min 33 W/m 12,9 km/h (3 Bft) 100,00 %
11.02.2023 09:46 6,0 C 5,6 C 2,2 C 96 % 1035,1 hPa 0,0 l/m 0 min 0 min 36 W/m 12,9 km/h (3 Bft) 97,87 %
11.02.2023 09:48 6,0 C 5,6 C 2,2 C 96 % 1035,0 hPa 0,0 l/m 0 min 0 min 36 W/m 12,9 km/h (3 Bft) 97,83 %
11.02.2023 09:50 6,0 C 5,6 C 2,2 C 96 % 1035,0 hPa 0,0 l/m 0 min 0 min 39 W/m 12,9 km/h (3 Bft) 97,87 %
11.02.2023 09:52 6,1 C 5,6 C 2,2 C 96 % 1035,1 hPa 0,0 l/m 0 min 0 min 42 W/m 12,9 km/h (3 Bft) 95,74 %
11.02.2023 09:54 6,1 C 5,6 C 2,2 C 96 % 1035,2 hPa 0,0 l/m 0 min 0 min 44 W/m 12,9 km/h (3 Bft) 95,74 %
11.02.2023 09:56 6,1 C 5,6 C 2,2 C 96 % 1035,1 hPa 0,0 l/m 0 min 0 min 42 W/m 6,4 km/h (2 Bft) 95,74 %
11.02.2023 09:58 6,1 C 5,6 C 2,2 C 96 % 1035,2 hPa 0,0 l/m 0 min 0 min 46 W/m 6,4 km/h (2 Bft) 97,87 %
11.02.2023 10:00 6,1 C 5,6 C 2,2 C 96 % 1035,2 hPa 0,0 l/m 0 min 0 min 51 W/m 12,9 km/h (3 Bft) 97,83 %
11.02.2023 10:02 6,1 C 6,1 C 2,8 C 96 % 1035,2 hPa 0,0 l/m 0 min 0 min 53 W/m 6,4 km/h (2 Bft) 95,74 %
11.02.2023 10:04 6,1 C 6,1 C 2,8 C 96 % 1035,2 hPa 0,0 l/m 0 min 0 min 48 W/m 12,9 km/h (3 Bft) 95,74 %
11.02.2023 10:06 6,2 C 6,1 C 2,8 C 95 % 1035,2 hPa 0,0 l/m 0 min 0 min 52 W/m 12,9 km/h (3 Bft) 96,61 %
11.02.2023 10:08 6,2 C 6,1 C 2,8 C 95 % 1035,2 hPa 0,0 l/m 0 min 0 min 57 W/m 12,9 km/h (3 Bft) 94,29 %
11.02.2023 10:10 6,2 C 6,1 C 2,8 C 95 % 1035,2 hPa 0,0 l/m 0 min 0 min 56 W/m 12,9 km/h (3 Bft) 95,74 %
11.02.2023 10:12 6,2 C 6,1 C 2,8 C 95 % 1035,3 hPa 0,0 l/m 0 min 0 min 63 W/m 9,7 km/h (2 Bft) 95,65 %
11.02.2023 10:14 6,2 C 6,1 C 2,8 C 95 % 1035,3 hPa 0,0 l/m 0 min 0 min 64 W/m 12,9 km/h (3 Bft) 93,62 %
11.02.2023 10:16 6,2 C 6,1 C 2,8 C 95 % 1035,4 hPa 0,0 l/m 0 min 0 min 62 W/m 16,1 km/h (3 Bft) 93,62 %
11.02.2023 10:18 6,2 C 6,1 C 2,8 C 95 % 1035,3 hPa 0,0 l/m 0 min 0 min 62 W/m 12,9 km/h (3 Bft) 95,74 %
11.02.2023 10:20 6,3 C 6,1 C 2,8 C 95 % 1035,4 hPa 0,0 l/m 0 min 0 min 63 W/m 6,4 km/h (2 Bft) 93,62 %
11.02.2023 10:22 6,3 C 6,1 C 2,8 C 95 % 1035,4 hPa 0,0 l/m 0 min 0 min 64 W/m 9,7 km/h (2 Bft) 95,74 %
11.02.2023 10:24 6,3 C 6,1 C 2,8 C 95 % 1035,4 hPa 0,0 l/m 0 min 0 min 66 W/m 12,9 km/h (3 Bft) 93,62 %
11.02.2023 10:26 6,3 C 6,1 C 2,8 C 95 % 1035,4 hPa 0,0 l/m 0 min 0 min 55 W/m 9,7 km/h (2 Bft) 93,48 %
11.02.2023 10:28 6,3 C 6,1 C 2,8 C 95 % 1035,4 hPa 0,0 l/m 0 min 0 min 65 W/m 9,7 km/h (2 Bft) 95,74 %
11.02.2023 10:30 6,3 C 6,1 C 2,8 C 95 % 1035,4 hPa 0,0 l/m 0 min 0 min 69 W/m 16,1 km/h (3 Bft) 91,49 %
11.02.2023 10:32 6,4 C 6,1 C 2,8 C 95 % 1035,4 hPa 0,0 l/m 0 min 0 min 68 W/m 9,7 km/h (2 Bft) 97,87 %
11.02.2023 10:34 6,4 C 6,1 C 2,8 C 95 % 1035,5 hPa 0,0 l/m 0 min 0 min 67 W/m 12,9 km/h (3 Bft) 97,87 %
11.02.2023 10:36 6,4 C 6,1 C 2,8 C 95 % 1035,5 hPa 0,0 l/m 0 min 0 min 62 W/m 12,9 km/h (3 Bft) 98,11 %
11.02.2023 10:38 6,4 C 6,1 C 2,8 C 95 % 1035,5 hPa 0,0 l/m 0 min 0 min 71 W/m 6,4 km/h (2 Bft) 97,96 %
11.02.2023 10:40 6,4 C 6,1 C 2,8 C 95 % 1035,5 hPa 0,0 l/m 0 min 0 min 74 W/m 12,9 km/h (3 Bft) 100,00 %
11.02.2023 10:42 6,5 C 6,1 C 2,8 C 95 % 1035,5 hPa 0,0 l/m 0 min 0 min 78 W/m 9,7 km/h (2 Bft) 100,00 %
11.02.2023 10:44 6,5 C 6,1 C 2,8 C 95 % 1035,5 hPa 0,0 l/m 0 min 0 min 77 W/m 12,9 km/h (3 Bft) 96,23 %
11.02.2023 10:46 6,5 C 6,1 C 2,8 C 95 % 1035,5 hPa 0,0 l/m 0 min 0 min 85 W/m 12,9 km/h (3 Bft) 94,00 %
11.02.2023 10:48 6,5 C 6,1 C 3,3 C 95 % 1035,5 hPa 0,0 l/m 0 min 0 min 81 W/m 9,7 km/h (2 Bft) 100,00 %
11.02.2023 10:50 6,5 C 6,1 C 3,3 C 95 % 1035,5 hPa 0,0 l/m 0 min 0 min 70 W/m 16,1 km/h (3 Bft) 100,00 %
11.02.2023 10:52 6,5 C 6,1 C 2,8 C 95 % 1035,5 hPa 0,0 l/m 0 min 0 min 65 W/m 19,3 km/h (3 Bft) 97,83 %
11.02.2023 10:54 6,6 C 6,1 C 2,8 C 95 % 1035,5 hPa 0,0 l/m 0 min 0 min 64 W/m 12,9 km/h (3 Bft) 97,87 %
11.02.2023 10:56 6,6 C 6,1 C 2,8 C 95 % 1035,6 hPa 0,0 l/m 0 min 0 min 61 W/m 6,4 km/h (2 Bft) 95,74 %
11.02.2023 10:58 6,6 C 6,1 C 2,8 C 95 % 1035,6 hPa 0,0 l/m 0 min 0 min 58 W/m 6,4 km/h (2 Bft) 97,87 %
11.02.2023 11:00 6,6 C 6,1 C 2,8 C 95 % 1035,6 hPa 0,0 l/m 0 min 0 min 53 W/m 6,4 km/h (2 Bft) 97,87 %
11.02.2023 11:02 6,6 C 6,1 C 3,3 C 95 % 1035,6 hPa 0,0 l/m 0 min 0 min 54 W/m 12,9 km/h (3 Bft) 97,87 %
11.02.2023 11:04 6,6 C 6,1 C 2,8 C 95 % 1035,7 hPa 0,0 l/m 0 min 0 min 53 W/m 19,3 km/h (3 Bft) 97,83 %
11.02.2023 11:06 6,6 C 6,1 C 2,8 C 95 % 1035,8 hPa 0,0 l/m 0 min 0 min 55 W/m 16,1 km/h (3 Bft) 94,92 %
11.02.2023 11:08 6,6 C 6,1 C 2,8 C 95 % 1035,8 hPa 0,0 l/m 0 min 0 min 51 W/m 6,4 km/h (2 Bft) 100,00 %
11.02.2023 11:10 6,6 C 6,1 C 2,8 C 95 % 1035,8 hPa 0,0 l/m 0 min 0 min 48 W/m 9,7 km/h (2 Bft) 97,87 %
11.02.2023 11:12 6,6 C 6,1 C 2,8 C 95 % 1035,8 hPa 0,0 l/m 0 min 0 min 55 W/m 6,4 km/h (2 Bft) 95,74 %
11.02.2023 11:14 6,6 C 6,1 C 3,3 C 95 % 1035,9 hPa 0,0 l/m 0 min 0 min 54 W/m 6,4 km/h (2 Bft) 95,74 %
11.02.2023 11:16 6,7 C 6,1 C 2,8 C 95 % 1035,9 hPa 0,0 l/m 0 min 0 min 49 W/m 12,9 km/h (3 Bft) 97,87 %
11.02.2023 11:18 6,7 C 6,1 C 3,3 C 95 % 1035,9 hPa 0,0 l/m 0 min 0 min 50 W/m 12,9 km/h (3 Bft) 97,83 %
11.02.2023 11:20 6,7 C 6,1 C 3,3 C 95 % 1035,9 hPa 0,0 l/m 0 min 0 min 47 W/m 9,7 km/h (2 Bft) 97,87 %
11.02.2023 11:22 6,7 C 6,1 C 2,8 C 95 % 1036,0 hPa 0,0 l/m 0 min 0 min 46 W/m 6,4 km/h (2 Bft) 95,74 %
11.02.2023 11:24 6,7 C 6,1 C 3,3 C 95 % 1036,0 hPa 0,0 l/m 0 min 0 min 50 W/m 6,4 km/h (2 Bft) 97,87 %
11.02.2023 11:26 6,7 C 6,1 C 3,3 C 95 % 1036,0 hPa 0,0 l/m 0 min 0 min 53 W/m 12,9 km/h (3 Bft) 97,87 %
11.02.2023 11:28 6,7 C 6,1 C 3,3 C 95 % 1036,0 hPa 0,0 l/m 0 min 0 min 51 W/m 9,7 km/h (2 Bft) 97,87 %
11.02.2023 11:30 6,7 C 6,1 C 3,3 C 95 % 1036,0 hPa 0,0 l/m 0 min 0 min 58 W/m 3,2 km/h (1 Bft) 97,83 %
11.02.2023 11:32 6,7 C 6,7 C 3,3 C 95 % 1036,0 hPa 0,0 l/m 0 min 0 min 57 W/m 6,4 km/h (2 Bft) 97,87 %
11.02.2023 11:34 6,7 C 6,1 C 3,3 C 95 % 1035,9 hPa 0,0 l/m 0 min 0 min 56 W/m 12,9 km/h (3 Bft) 97,87 %
11.02.2023 11:36 6,7 C 6,1 C 3,3 C 95 % 1036,0 hPa 0,0 l/m 0 min 0 min 58 W/m 6,4 km/h (2 Bft) 97,87 %
11.02.2023 11:38 6,7 C 6,7 C 3,3 C 95 % 1036,0 hPa 0,0 l/m 0 min 0 min 64 W/m 12,9 km/h (3 Bft) 97,87 %
11.02.2023 11:40 6,7 C 6,7 C 3,3 C 95 % 1035,9 hPa 0,0 l/m 0 min 0 min 61 W/m 6,4 km/h (2 Bft) 97,87 %
11.02.2023 11:42 6,8 C 6,7 C 3,3 C 95 % 1035,9 hPa 0,0 l/m 0 min 0 min 56 W/m 12,9 km/h (3 Bft) 97,83 %
11.02.2023 11:44 6,8 C 6,7 C 3,3 C 95 % 1035,9 hPa 0,0 l/m 0 min 0 min 54 W/m 16,1 km/h (3 Bft) 51,16 %
11.02.2023 11:46 6,8 C 6,7 C 3,3 C 95 % 1036,0 hPa 0,0 l/m 0 min 0 min 56 W/m 12,9 km/h (3 Bft) 97,87 %
11.02.2023 11:48 6,8 C 6,7 C 3,3 C 95 % 1035,9 hPa 0,0 l/m 0 min 0 min 67 W/m 9,7 km/h (2 Bft) 100,00 %
11.02.2023 11:50 6,8 C 6,7 C 3,3 C 95 % 1035,9 hPa 0,0 l/m 0 min 0 min 64 W/m 12,9 km/h (3 Bft) 100,00 %
11.02.2023 11:52 6,8 C 6,7 C 3,3 C 95 % 1035,9 hPa 0,0 l/m 0 min 0 min 59 W/m 12,9 km/h (3 Bft) 100,00 %
11.02.2023 11:54 6,8 C 6,7 C 3,3 C 95 % 1036,0 hPa 0,0 l/m 0 min 0 min 65 W/m 6,4 km/h (2 Bft) 100,00 %
11.02.2023 11:56 6,8 C 6,7 C 3,3 C 95 % 1035,9 hPa 0,0 l/m 0 min 0 min 68 W/m 9,7 km/h (2 Bft) 95,65 %
11.02.2023 11:58 6,8 C 6,7 C 3,3 C 95 % 1036,0 hPa 0,0 l/m 0 min 0 min 66 W/m 3,2 km/h (1 Bft) 100,00 %
11.02.2023 12:00 6,9 C 6,7 C 3,3 C 95 % 1036,0 hPa 0,0 l/m 0 min 0 min 78 W/m 6,4 km/h (2 Bft) 100,00 %
11.02.2023 12:02 6,9 C 6,7 C 3,3 C 95 % 1035,9 hPa 0,0 l/m 0 min 0 min 82 W/m 16,1 km/h (3 Bft) 100,00 %
11.02.2023 12:04 6,9 C 6,7 C 3,3 C 95 % 1036,0 hPa 0,0 l/m 0 min 0 min 83 W/m 6,4 km/h (2 Bft) 100,00 %
11.02.2023 12:07 6,9 C 6,7 C 3,3 C 95 % 1036,0 hPa 0,0 l/m 0 min 0 min 94 W/m 12,9 km/h (3 Bft) 98,57 %
11.02.2023 12:08 6,9 C 6,7 C 3,3 C 95 % 1036,0 hPa 0,0 l/m 0 min 0 min 86 W/m 6,4 km/h (2 Bft) 95,65 %
11.02.2023 12:12 7,0 C 6,7 C 3,3 C 95 % 1036,0 hPa 0,0 l/m 0 min 0 min 69 W/m 9,7 km/h (2 Bft) 98,04 %
11.02.2023 12:14 7,0 C 6,7 C 3,3 C 95 % 1036,0 hPa 0,0 l/m 0 min 0 min 77 W/m 3,2 km/h (1 Bft) 97,87 %
11.02.2023 12:16 7,1 C 6,7 C 3,3 C 95 % 1036,0 hPa 0,0 l/m 0 min 0 min 65 W/m 12,9 km/h (3 Bft) 97,87 %
11.02.2023 12:18 7,1 C 6,7 C 3,3 C 95 % 1036,0 hPa 0,0 l/m 0 min 0 min 63 W/m 9,7 km/h (2 Bft) 97,87 %
11.02.2023 12:20 7,1 C 6,7 C 3,3 C 94 % 1035,9 hPa 0,0 l/m 0 min 0 min 58 W/m 16,1 km/h (3 Bft) 97,83 %
11.02.2023 12:22 7,1 C 6,7 C 3,3 C 94 % 1035,9 hPa 0,0 l/m 0 min 0 min 52 W/m 9,7 km/h (2 Bft) 95,74 %
11.02.2023 12:24 7,1 C 6,7 C 3,3 C 94 % 1036,0 hPa 0,0 l/m 0 min 0 min 53 W/m 6,4 km/h (2 Bft) 97,87 %
11.02.2023 12:26 7,1 C 6,7 C 3,3 C 94 % 1036,0 hPa 0,0 l/m 0 min 0 min 51 W/m 6,4 km/h (2 Bft) 93,62 %
11.02.2023 12:28 7,1 C 6,7 C 3,3 C 94 % 1036,0 hPa 0,0 l/m 0 min 0 min 50 W/m 6,4 km/h (2 Bft) 95,74 %
11.02.2023 12:30 7,1 C 6,7 C 3,3 C 94 % 1036,0 hPa 0,0 l/m 0 min 0 min 58 W/m 16,1 km/h (3 Bft) 95,74 %
11.02.2023 12:32 7,1 C 6,7 C 3,3 C 94 % 1036,1 hPa 0,0 l/m 0 min 0 min 62 W/m 16,1 km/h (3 Bft) 91,49 %
11.02.2023 12:34 7,1 C 6,7 C 3,3 C 94 % 1036,1 hPa 0,0 l/m 0 min 0 min 62 W/m 12,9 km/h (3 Bft) 93,48 %
11.02.2023 12:36 7,1 C 6,7 C 3,3 C 94 % 1036,1 hPa 0,0 l/m 0 min 0 min 57 W/m 6,4 km/h (2 Bft) 93,62 %
11.02.2023 12:38 7,1 C 6,7 C 3,3 C 94 % 1036,1 hPa 0,0 l/m 0 min 0 min 68 W/m 9,7 km/h (2 Bft) 95,74 %
11.02.2023 12:40 7,1 C 6,7 C 3,3 C 94 % 1036,0 hPa 0,0 l/m 0 min 0 min 77 W/m 9,7 km/h (2 Bft) 91,49 %
11.02.2023 12:42 7,1 C 6,7 C 3,3 C 94 % 1036,0 hPa 0,0 l/m 0 min 0 min 81 W/m 12,9 km/h (3 Bft) 97,87 %
11.02.2023 12:44 7,1 C 6,7 C 3,3 C 94 % 1036,0 hPa 0,0 l/m 0 min 0 min 75 W/m 6,4 km/h (2 Bft) 97,87 %
11.02.2023 12:46 7,1 C 6,7 C 3,9 C 94 % 1036,0 hPa 0,0 l/m 0 min 0 min 72 W/m 6,4 km/h (2 Bft) 97,83 %
11.02.2023 12:48 7,2 C 7,2 C 3,9 C 94 % 1036,0 hPa 0,0 l/m 0 min 0 min 82 W/m 6,4 km/h (2 Bft) 93,62 %
11.02.2023 12:50 7,2 C 7,2 C 3,9 C 94 % 1036,0 hPa 0,0 l/m 0 min 0 min 84 W/m 6,4 km/h (2 Bft) 95,74 %
11.02.2023 12:52 7,2 C 7,2 C 3,9 C 94 % 1036,0 hPa 0,0 l/m 0 min 0 min 80 W/m 12,9 km/h (3 Bft) 97,87 %
11.02.2023 12:54 7,2 C 7,2 C 3,9 C 94 % 1036,0 hPa 0,0 l/m 0 min 0 min 72 W/m 12,9 km/h (3 Bft) 97,87 %
11.02.2023 12:56 7,2 C 7,2 C 3,9 C 94 % 1035,9 hPa 0,0 l/m 0 min 0 min 68 W/m 6,4 km/h (2 Bft) 97,87 %
11.02.2023 12:58 7,2 C 7,2 C 3,9 C 94 % 1036,0 hPa 0,0 l/m 0 min 0 min 70 W/m 12,9 km/h (3 Bft) 97,83 %
11.02.2023 13:00 7,2 C 6,7 C 3,9 C 94 % 1035,9 hPa 0,0 l/m 0 min 0 min 62 W/m 16,1 km/h (3 Bft) 97,87 %
11.02.2023 13:02 7,3 C 6,7 C 3,9 C 94 % 1035,9 hPa 0,0 l/m 0 min 0 min 56 W/m 6,4 km/h (2 Bft) 97,87 %
11.02.2023 13:04 7,3 C 7,2 C 3,9 C 94 % 1035,9 hPa 0,0 l/m 0 min 0 min 62 W/m 6,4 km/h (2 Bft) 95,74 %
11.02.2023 13:06 7,3 C 7,2 C 3,9 C 94 % 1035,8 hPa 0,0 l/m 0 min 0 min 61 W/m 9,7 km/h (2 Bft) 96,61 %
11.02.2023 13:08 7,3 C 6,7 C 3,9 C 94 % 1035,8 hPa 0,0 l/m 0 min 0 min 62 W/m 9,7 km/h (2 Bft) 91,43 %
11.02.2023 13:10 7,3 C 7,2 C 3,9 C 94 % 1035,9 hPa 0,0 l/m 0 min 0 min 60 W/m 6,4 km/h (2 Bft) 55,56 %
11.02.2023 13:12 7,3 C 6,7 C 3,9 C 94 % 1035,9 hPa 0,0 l/m 0 min 0 min 53 W/m 12,9 km/h (3 Bft) 97,73 %
11.02.2023 13:14 7,3 C 7,2 C 3,9 C 94 % 1035,9 hPa 0,0 l/m 0 min 0 min 56 W/m 3,2 km/h (1 Bft) 100,00 %
11.02.2023 13:16 7,3 C 7,2 C 3,9 C 94 % 1035,9 hPa 0,0 l/m 0 min 0 min 67 W/m 16,1 km/h (3 Bft) 100,00 %
11.02.2023 13:18 7,3 C 7,2 C 3,9 C 94 % 1035,9 hPa 0,0 l/m 0 min 0 min 75 W/m 9,7 km/h (2 Bft) 100,00 %
11.02.2023 13:20 7,3 C 7,2 C 3,9 C 94 % 1035,9 hPa 0,0 l/m 0 min 0 min 66 W/m 6,4 km/h (2 Bft) 97,87 %
11.02.2023 13:22 7,3 C 7,2 C 3,9 C 94 % 1035,8 hPa 0,0 l/m 0 min 0 min 69 W/m 6,4 km/h (2 Bft) 100,00 %
11.02.2023 13:24 7,3 C 7,2 C 3,9 C 94 % 1035,9 hPa 0,0 l/m 0 min 0 min 73 W/m 12,9 km/h (3 Bft) 97,83 %
11.02.2023 13:26 7,3 C 7,2 C 3,9 C 94 % 1035,9 hPa 0,0 l/m 0 min 0 min 74 W/m 12,9 km/h (3 Bft) 100,00 %
11.02.2023 13:28 7,4 C 7,2 C 3,9 C 94 % 1035,9 hPa 0,0 l/m 0 min 0 min 80 W/m 6,4 km/h (2 Bft) 95,74 %
11.02.2023 13:30 7,4 C 7,2 C 3,9 C 94 % 1035,9 hPa 0,0 l/m 0 min 0 min 89 W/m 12,9 km/h (3 Bft) 95,74 %
11.02.2023 13:32 7,4 C 7,2 C 3,9 C 94 % 1035,9 hPa 0,0 l/m 0 min 0 min 83 W/m 12,9 km/h (3 Bft) 100,00 %
11.02.2023 13:34 7,4 C 7,2 C 3,9 C 94 % 1035,9 hPa 0,0 l/m 0 min 0 min 103 W/m 6,4 km/h (2 Bft) 100,00 %
11.02.2023 13:36 7,4 C 7,2 C 3,9 C 94 % 1036,0 hPa 0,0 l/m 0 min 0 min 107 W/m 3,2 km/h (1 Bft) 100,00 %
11.02.2023 13:38 7,4 C 7,2 C 3,9 C 94 % 1035,9 hPa 0,0 l/m 0 min 0 min 103 W/m 6,4 km/h (2 Bft) 100,00 %
11.02.2023 13:40 7,5 C 7,2 C 3,9 C 94 % 1035,9 hPa 0,0 l/m 0 min 0 min 107 W/m 12,9 km/h (3 Bft) 97,87 %
11.02.2023 13:42 7,6 C 7,8 C 4,4 C 94 % 1035,9 hPa 0,0 l/m 0 min 0 min 102 W/m 6,4 km/h (2 Bft) 97,87 %
11.02.2023 13:44 7,6 C 7,8 C 4,4 C 94 % 1035,9 hPa 0,0 l/m 0 min 0 min 106 W/m 12,9 km/h (3 Bft) 100,00 %
11.02.2023 13:46 7,6 C 7,8 C 4,4 C 94 % 1035,9 hPa 0,0 l/m 0 min 0 min 99 W/m 12,9 km/h (3 Bft) 100,00 %
11.02.2023 13:48 7,6 C 7,8 C 4,4 C 94 % 1035,9 hPa 0,0 l/m 0 min 0 min 80 W/m 12,9 km/h (3 Bft) 100,00 %
11.02.2023 13:50 7,6 C 7,8 C 4,4 C 94 % 1035,8 hPa 0,0 l/m 0 min 0 min 86 W/m 6,4 km/h (2 Bft) 97,83 %
11.02.2023 13:52 7,6 C 7,2 C 4,4 C 94 % 1035,8 hPa 0,0 l/m 0 min 0 min 88 W/m 12,9 km/h (3 Bft) 95,74 %
11.02.2023 13:54 7,6 C 7,2 C 4,4 C 94 % 1035,8 hPa 0,0 l/m 0 min 0 min 83 W/m 12,9 km/h (3 Bft) 97,87 %
11.02.2023 13:56 7,7 C 7,2 C 4,4 C 93 % 1035,8 hPa 0,0 l/m 0 min 0 min 86 W/m 6,4 km/h (2 Bft) 97,87 %
11.02.2023 13:58 7,7 C 7,2 C 4,4 C 93 % 1035,8 hPa 0,0 l/m 0 min 0 min 92 W/m 6,4 km/h (2 Bft) 95,74 %
11.02.2023 14:00 7,7 C 7,2 C 4,4 C 94 % 1035,8 hPa 0,0 l/m 0 min 0 min 94 W/m 12,9 km/h (3 Bft) 93,62 %
11.02.2023 14:02 7,7 C 7,2 C 4,4 C 94 % 1035,7 hPa 0,0 l/m 0 min 0 min 92 W/m 9,7 km/h (2 Bft) 97,83 %
11.02.2023 14:04 7,7 C 7,8 C 4,4 C 94 % 1035,7 hPa 0,0 l/m 0 min 0 min 93 W/m 6,4 km/h (2 Bft) 95,74 %
11.02.2023 14:06 7,7 C 7,8 C 4,4 C 94 % 1035,6 hPa 0,0 l/m 0 min 0 min 96 W/m 12,9 km/h (3 Bft) 98,31 %
11.02.2023 14:08 7,7 C 7,8 C 4,4 C 94 % 1035,6 hPa 0,0 l/m 0 min 0 min 109 W/m 6,4 km/h (2 Bft) 91,43 %
11.02.2023 14:10 7,8 C 7,8 C 4,4 C 93 % 1035,6 hPa 0,0 l/m 0 min 0 min 121 W/m 12,9 km/h (3 Bft) 95,74 %
11.02.2023 14:12 7,8 C 7,8 C 4,4 C 93 % 1035,6 hPa 0,0 l/m 0 min 0 min 118 W/m 12,9 km/h (3 Bft) 93,62 %
11.02.2023 14:14 7,8 C 7,8 C 4,4 C 93 % 1035,6 hPa 0,0 l/m 0 min 0 min 105 W/m 12,9 km/h (3 Bft) 95,74 %
11.02.2023 14:16 7,8 C 7,8 C 4,4 C 93 % 1035,6 hPa 0,0 l/m 0 min 0 min 96 W/m 6,4 km/h (2 Bft) 95,65 %
11.02.2023 14:18 7,8 C 7,8 C 4,4 C 93 % 1035,5 hPa 0,0 l/m 0 min 0 min 99 W/m 6,4 km/h (2 Bft) 95,74 %
11.02.2023 14:20 7,8 C 7,8 C 4,4 C 93 % 1035,5 hPa 0,0 l/m 0 min 0 min 90 W/m 12,9 km/h (3 Bft) 95,74 %
11.02.2023 14:24 7,8 C 7,8 C 4,4 C 93 % 1035,6 hPa 0,0 l/m 0 min 0 min 68 W/m 6,4 km/h (2 Bft) 100,00 %
11.02.2023 14:26 7,8 C 7,8 C 4,4 C 93 % 1035,6 hPa 0,0 l/m 0 min 0 min 81 W/m 6,4 km/h (2 Bft) 97,14 %
11.02.2023 14:28 7,9 C 7,8 C 4,4 C 93 % 1035,6 hPa 0,0 l/m 0 min 0 min 88 W/m 6,4 km/h (2 Bft) 100,00 %
11.02.2023 14:30 7,9 C 7,8 C 4,4 C 93 % 1035,6 hPa 0,0 l/m 0 min 0 min 82 W/m 3,2 km/h (1 Bft) 97,87 %
11.02.2023 14:32 7,9 C 7,8 C 4,4 C 93 % 1035,6 hPa 0,0 l/m 0 min 0 min 77 W/m 9,7 km/h (2 Bft) 93,62 %
11.02.2023 14:34 7,9 C 7,8 C 4,4 C 93 % 1035,6 hPa 0,0 l/m 0 min 0 min 79 W/m 12,9 km/h (3 Bft) 95,65 %
11.02.2023 14:36 7,9 C 7,8 C 4,4 C 93 % 1035,5 hPa 0,0 l/m 0 min 0 min 80 W/m 12,9 km/h (3 Bft) 95,74 %
11.02.2023 14:38 7,9 C 7,8 C 4,4 C 93 % 1035,6 hPa 0,0 l/m 0 min 0 min 82 W/m 6,4 km/h (2 Bft) 95,74 %
11.02.2023 14:40 7,9 C 7,8 C 4,4 C 93 % 1035,5 hPa 0,0 l/m 0 min 0 min 99 W/m 12,9 km/h (3 Bft) 95,74 %
11.02.2023 14:42 7,9 C 7,8 C 4,4 C 93 % 1035,5 hPa 0,0 l/m 0 min 0 min 120 W/m 9,7 km/h (2 Bft) 91,49 %
11.02.2023 14:44 8,0 C 7,8 C 4,4 C 93 % 1035,6 hPa 0,0 l/m 0 min 0 min 124 W/m 6,4 km/h (2 Bft) 97,87 %
11.02.2023 14:46 8,0 C 8,3 C 4,4 C 93 % 1035,6 hPa 0,0 l/m 0 min 0 min 143 W/m 6,4 km/h (2 Bft) 100,00 %
11.02.2023 14:48 8,1 C 8,3 C 4,4 C 93 % 1035,7 hPa 0,0 l/m 0 min 0 min 126 W/m 6,4 km/h (2 Bft) 100,00 %
11.02.2023 14:50 8,1 C 8,3 C 5,0 C 93 % 1035,7 hPa 0,0 l/m 0 min 0 min 134 W/m 12,9 km/h (3 Bft) 100,00 %
11.02.2023 14:52 8,1 C 8,3 C 5,0 C 93 % 1035,7 hPa 0,0 l/m 0 min 0 min 126 W/m 16,1 km/h (3 Bft) 100,00 %
11.02.2023 14:54 8,2 C 8,3 C 5,0 C 93 % 1035,7 hPa 0,0 l/m 0 min 0 min 123 W/m 12,9 km/h (3 Bft) 100,00 %
11.02.2023 14:56 8,2 C 8,3 C 5,0 C 93 % 1035,7 hPa 0,0 l/m 0 min 0 min 119 W/m 6,4 km/h (2 Bft) 97,87 %
11.02.2023 14:58 8,2 C 8,3 C 5,0 C 93 % 1035,7 hPa 0,0 l/m 0 min 0 min 107 W/m 9,7 km/h (2 Bft) 100,00 %
11.02.2023 15:00 8,2 C 8,3 C 5,0 C 93 % 1035,8 hPa 0,0 l/m 0 min 0 min 103 W/m 6,4 km/h (2 Bft) 100,00 %
11.02.2023 15:02 8,2 C 8,3 C 5,0 C 93 % 1035,8 hPa 0,0 l/m 0 min 0 min 108 W/m 6,4 km/h (2 Bft) 95,74 %
11.02.2023 15:04 8,3 C 8,3 C 5,0 C 93 % 1035,7 hPa 0,0 l/m 0 min 0 min 110 W/m 12,9 km/h (3 Bft) 100,00 %
11.02.2023 15:06 8,3 C 8,3 C 5,0 C 93 % 1035,7 hPa 0,0 l/m 0 min 0 min 118 W/m 12,9 km/h (3 Bft) 97,92 %
11.02.2023 15:08 8,3 C 8,3 C 5,0 C 93 % 1035,7 hPa 0,0 l/m 0 min 0 min 126 W/m 6,4 km/h (2 Bft) 97,87 %
11.02.2023 15:10 8,3 C 8,3 C 5,0 C 92 % 1035,7 hPa 0,0 l/m 0 min 0 min 126 W/m 12,9 km/h (3 Bft) 97,87 %
11.02.2023 15:12 8,3 C 8,3 C 5,0 C 92 % 1035,6 hPa 0,0 l/m 0 min 0 min 122 W/m 6,4 km/h (2 Bft) 97,83 %
11.02.2023 15:14 8,4 C 8,3 C 5,0 C 92 % 1035,6 hPa 0,0 l/m 0 min 0 min 120 W/m 6,4 km/h (2 Bft) 97,87 %
11.02.2023 15:16 8,4 C 8,3 C 5,0 C 92 % 1035,6 hPa 0,0 l/m 0 min 0 min 120 W/m 6,4 km/h (2 Bft) 97,87 %
11.02.2023 15:18 8,4 C 8,9 C 5,0 C 92 % 1035,6 hPa 0,0 l/m 0 min 0 min 120 W/m 3,2 km/h (1 Bft) 97,87 %
11.02.2023 15:20 8,4 C 8,9 C 5,0 C 92 % 1035,6 hPa 0,0 l/m 0 min 0 min 119 W/m 3,2 km/h (1 Bft) 97,87 %
11.02.2023 15:22 8,5 C 8,9 C 5,0 C 92 % 1035,6 hPa 0,0 l/m 0 min 0 min 112 W/m 6,4 km/h (2 Bft) 95,74 %
11.02.2023 15:24 8,5 C 8,9 C 5,0 C 92 % 1035,7 hPa 0,0 l/m 0 min 0 min 107 W/m 9,7 km/h (2 Bft) 95,65 %
11.02.2023 15:26 8,6 C 8,3 C 5,0 C 92 % 1035,6 hPa 0,0 l/m 0 min 0 min 105 W/m 12,9 km/h (3 Bft) 97,87 %
11.02.2023 15:28 8,6 C 8,3 C 5,0 C 92 % 1035,6 hPa 0,0 l/m 0 min 0 min 105 W/m 12,9 km/h (3 Bft) 97,87 %
11.02.2023 15:30 8,6 C 8,9 C 5,0 C 92 % 1035,6 hPa 0,0 l/m 0 min 0 min 107 W/m 6,4 km/h (2 Bft) 97,87 %
11.02.2023 15:32 8,6 C 8,9 C 5,0 C 92 % 1035,6 hPa 0,0 l/m 0 min 0 min 111 W/m 9,7 km/h (2 Bft) 97,87 %
11.02.2023 15:34 8,6 C 8,9 C 5,0 C 92 % 1035,6 hPa 0,0 l/m 0 min 0 min 109 W/m 9,7 km/h (2 Bft) 97,37 %
11.02.2023 15:36 8,6 C 8,9 C 5,0 C 92 % 1035,5 hPa 0,0 l/m 0 min 0 min 107 W/m 6,4 km/h (2 Bft) 97,87 %
11.02.2023 15:38 8,6 C 8,9 C 5,0 C 92 % 1035,5 hPa 0,0 l/m 0 min 0 min 114 W/m 12,9 km/h (3 Bft) 97,83 %
11.02.2023 15:40 8,6 C 8,9 C 5,0 C 92 % 1035,6 hPa 0,0 l/m 0 min 0 min 124 W/m 12,9 km/h (3 Bft) 97,87 %
11.02.2023 15:42 8,6 C 8,9 C 5,0 C 91 % 1035,5 hPa 0,0 l/m 0 min 0 min 120 W/m 16,1 km/h (3 Bft) 93,62 %
11.02.2023 15:44 8,6 C 8,9 C 5,0 C 91 % 1035,5 hPa 0,0 l/m 0 min 0 min 111 W/m 3,2 km/h (1 Bft) 97,87 %
11.02.2023 15:46 8,6 C 8,9 C 5,0 C 91 % 1035,5 hPa 0,0 l/m 0 min 0 min 107 W/m 12,9 km/h (3 Bft) 97,87 %
11.02.2023 15:48 8,6 C 8,9 C 5,0 C 91 % 1035,6 hPa 0,0 l/m 0 min 0 min 105 W/m 12,9 km/h (3 Bft) 95,74 %
11.02.2023 15:50 8,6 C 8,3 C 5,0 C 91 % 1035,6 hPa 0,0 l/m 0 min 0 min 96 W/m 12,9 km/h (3 Bft) 97,87 %
11.02.2023 15:52 8,6 C 8,3 C 5,0 C 91 % 1035,7 hPa 0,0 l/m 0 min 0 min 97 W/m 9,7 km/h (2 Bft) 97,83 %
11.02.2023 15:54 8,6 C 8,3 C 5,0 C 91 % 1035,6 hPa 0,0 l/m 0 min 0 min 96 W/m 6,4 km/h (2 Bft) 100,00 %
11.02.2023 15:56 8,6 C 8,3 C 5,0 C 91 % 1035,7 hPa 0,0 l/m 0 min 0 min 88 W/m 6,4 km/h (2 Bft) 100,00 %
11.02.2023 15:58 8,6 C 8,3 C 5,0 C 91 % 1035,7 hPa 0,0 l/m 0 min 0 min 89 W/m 12,9 km/h (3 Bft) 100,00 %
11.02.2023 16:00 8,6 C 8,3 C 5,0 C 91 % 1035,7 hPa 0,0 l/m 0 min 0 min 79 W/m 6,4 km/h (2 Bft) 97,87 %
11.02.2023 16:02 8,6 C 8,3 C 5,0 C 91 % 1035,7 hPa 0,0 l/m 0 min 0 min 64 W/m 6,4 km/h (2 Bft) 100,00 %
11.02.2023 16:04 8,6 C 8,3 C 5,0 C 91 % 1035,6 hPa 0,0 l/m 0 min 0 min 62 W/m 9,7 km/h (2 Bft) 100,00 %
11.02.2023 16:06 8,6 C 8,3 C 5,0 C 91 % 1035,7 hPa 0,0 l/m 0 min 0 min 70 W/m 6,4 km/h (2 Bft) 100,00 %
11.02.2023 16:08 8,6 C 8,3 C 5,0 C 91 % 1035,7 hPa 0,0 l/m 0 min 0 min 76 W/m 12,9 km/h (3 Bft) 100,00 %
11.02.2023 16:10 8,6 C 8,3 C 5,0 C 91 % 1035,7 hPa 0,0 l/m 0 min 0 min 71 W/m 6,4 km/h (2 Bft) 97,87 %
11.02.2023 16:12 8,6 C 8,3 C 5,0 C 91 % 1035,7 hPa 0,0 l/m 0 min 0 min 64 W/m 6,4 km/h (2 Bft) 93,62 %
11.02.2023 16:14 8,6 C 8,3 C 5,0 C 91 % 1035,7 hPa 0,0 l/m 0 min 0 min 63 W/m 6,4 km/h (2 Bft) 100,00 %
11.02.2023 16:16 8,6 C 8,3 C 5,0 C 91 % 1035,8 hPa 0,0 l/m 0 min 0 min 65 W/m 6,4 km/h (2 Bft) 100,00 %
11.02.2023 16:18 8,6 C 8,3 C 5,0 C 91 % 1035,7 hPa 0,0 l/m 0 min 0 min 56 W/m 16,1 km/h (3 Bft) 100,00 %
11.02.2023 16:20 8,6 C 8,3 C 5,0 C 91 % 1035,7 hPa 0,0 l/m 0 min 0 min 55 W/m 6,4 km/h (2 Bft) 97,87 %
11.02.2023 16:22 8,6 C 8,3 C 5,0 C 91 % 1035,8 hPa 0,0 l/m 0 min 0 min 44 W/m 12,9 km/h (3 Bft) 95,74 %
11.02.2023 16:24 8,6 C 8,3 C 5,0 C 91 % 1035,8 hPa 0,0 l/m 0 min 0 min 41 W/m 3,2 km/h (1 Bft) 97,87 %
11.02.2023 16:26 8,6 C 8,3 C 5,0 C 91 % 1035,9 hPa 0,0 l/m 0 min 0 min 38 W/m 3,2 km/h (1 Bft) 100,00 %
11.02.2023 16:28 8,6 C 8,3 C 5,0 C 91 % 1035,9 hPa 0,0 l/m 0 min 0 min 35 W/m 6,4 km/h (2 Bft) 74,47 %
11.02.2023 16:30 8,6 C 8,3 C 5,0 C 91 % 1035,9 hPa 0,0 l/m 0 min 0 min 36 W/m 6,4 km/h (2 Bft) 75,68 %
11.02.2023 16:32 8,6 C 8,3 C 5,0 C 91 % 1035,9 hPa 0,0 l/m 0 min 0 min 37 W/m 6,4 km/h (2 Bft) 97,87 %
11.02.2023 16:34 8,6 C 7,8 C 5,0 C 91 % 1035,9 hPa 0,0 l/m 0 min 0 min 41 W/m 12,9 km/h (3 Bft) 97,87 %
11.02.2023 16:36 8,6 C 7,8 C 5,0 C 91 % 1035,9 hPa 0,0 l/m 0 min 0 min 39 W/m 6,4 km/h (2 Bft) 93,62 %
11.02.2023 16:38 8,5 C 7,8 C 5,0 C 91 % 1035,9 hPa 0,0 l/m 0 min 0 min 40 W/m 3,2 km/h (1 Bft) 95,74 %
11.02.2023 16:40 8,6 C 7,8 C 4,4 C 91 % 1035,9 hPa 0,0 l/m 0 min 0 min 40 W/m 12,9 km/h (3 Bft) 97,87 %
11.02.2023 16:42 8,5 C 7,8 C 4,4 C 91 % 1035,9 hPa 0,0 l/m 0 min 0 min 39 W/m 6,4 km/h (2 Bft) 95,74 %
11.02.2023 16:44 8,5 C 7,8 C 4,4 C 91 % 1035,9 hPa 0,0 l/m 0 min 0 min 38 W/m 6,4 km/h (2 Bft) 97,83 %
11.02.2023 16:46 8,5 C 7,8 C 4,4 C 91 % 1035,9 hPa 0,0 l/m 0 min 0 min 39 W/m 6,4 km/h (2 Bft) 93,62 %
11.02.2023 16:48 8,5 C 7,8 C 4,4 C 91 % 1035,9 hPa 0,0 l/m 0 min 0 min 39 W/m 9,7 km/h (2 Bft) 97,87 %
11.02.2023 16:50 8,5 C 7,8 C 4,4 C 91 % 1035,9 hPa 0,0 l/m 0 min 0 min 39 W/m 6,4 km/h (2 Bft) 95,74 %
11.02.2023 16:52 8,4 C 7,8 C 4,4 C 91 % 1036,0 hPa 0,0 l/m 0 min 0 min 35 W/m 6,4 km/h (2 Bft) 97,87 %
11.02.2023 16:54 8,4 C 7,8 C 4,4 C 91 % 1036,0 hPa 0,0 l/m 0 min 0 min 30 W/m 6,4 km/h (2 Bft) 97,87 %
11.02.2023 16:56 8,4 C 7,8 C 4,4 C 91 % 1036,0 hPa 0,0 l/m 0 min 0 min 26 W/m 6,4 km/h (2 Bft) 97,83 %
11.02.2023 16:58 8,4 C 7,8 C 4,4 C 91 % 1035,9 hPa 0,0 l/m 0 min 0 min 25 W/m 6,4 km/h (2 Bft) 95,74 %
11.02.2023 17:00 8,4 C 7,8 C 4,4 C 91 % 1036,0 hPa 0,0 l/m 0 min 0 min 25 W/m 12,9 km/h (3 Bft) 97,87 %
11.02.2023 17:02 8,4 C 7,8 C 4,4 C 91 % 1035,9 hPa 0,0 l/m 0 min 0 min 22 W/m 6,4 km/h (2 Bft) 97,87 %
11.02.2023 17:04 8,4 C 7,8 C 4,4 C 91 % 1035,9 hPa 0,0 l/m 0 min 0 min 20 W/m 6,4 km/h (2 Bft) 97,87 %
11.02.2023 17:06 8,4 C 7,8 C 4,4 C 91 % 1035,9 hPa 0,0 l/m 0 min 0 min 18 W/m 3,2 km/h (1 Bft) 96,55 %
11.02.2023 17:08 8,4 C 7,8 C 4,4 C 91 % 1035,9 hPa 0,0 l/m 0 min 0 min 18 W/m 6,4 km/h (2 Bft) 97,22 %
11.02.2023 17:10 8,3 C 7,8 C 4,4 C 91 % 1036,0 hPa 0,0 l/m 0 min 0 min 17 W/m 6,4 km/h (2 Bft) 97,83 %
11.02.2023 17:12 8,3 C 7,8 C 4,4 C 91 % 1036,0 hPa 0,0 l/m 0 min 0 min 16 W/m 9,7 km/h (2 Bft) 97,87 %
11.02.2023 17:14 8,3 C 7,8 C 4,4 C 91 % 1035,9 hPa 0,0 l/m 0 min 0 min 14 W/m 6,4 km/h (2 Bft) 97,87 %
11.02.2023 17:16 8,3 C 7,8 C 4,4 C 92 % 1036,0 hPa 0,0 l/m 0 min 0 min 14 W/m 9,7 km/h (2 Bft) 94,64 %
11.02.2023 17:18 8,3 C 7,8 C 4,4 C 91 % 1036,0 hPa 0,0 l/m 0 min 0 min 14 W/m 6,4 km/h (2 Bft) 97,87 %
11.02.2023 17:20 8,3 C 7,8 C 4,4 C 91 % 1036,0 hPa 0,0 l/m 0 min 0 min 12 W/m 6,4 km/h (2 Bft) 95,74 %
11.02.2023 17:22 8,3 C 7,8 C 4,4 C 91 % 1036,0 hPa 0,0 l/m 0 min 0 min 11 W/m 12,9 km/h (3 Bft) 97,83 %
11.02.2023 17:24 8,2 C 7,8 C 4,4 C 91 % 1036,0 hPa 0,0 l/m 0 min 0 min 10 W/m 6,4 km/h (2 Bft) 97,87 %
11.02.2023 17:26 8,2 C 7,8 C 4,4 C 92 % 1036,0 hPa 0,0 l/m 0 min 0 min 9 W/m 6,4 km/h (2 Bft) 95,74 %
11.02.2023 17:28 8,2 C 7,8 C 4,4 C 92 % 1036,1 hPa 0,0 l/m 0 min 0 min 7 W/m 6,4 km/h (2 Bft) 97,87 %
11.02.2023 17:30 8,2 C 7,2 C 4,4 C 92 % 1036,1 hPa 0,0 l/m 0 min 0 min 6 W/m 3,2 km/h (1 Bft) 97,87 %
11.02.2023 17:32 8,2 C 7,2 C 4,4 C 92 % 1036,2 hPa 0,0 l/m 0 min 0 min 5 W/m 3,2 km/h (1 Bft) 97,87 %
11.02.2023 17:34 8,2 C 7,2 C 4,4 C 92 % 1036,2 hPa 0,0 l/m 0 min 0 min 5 W/m 0,0 km/h (0 Bft) 97,83 %
11.02.2023 17:36 8,2 C 7,2 C 4,4 C 92 % 1036,2 hPa 0,0 l/m 0 min 0 min 1 W/m 6,4 km/h (2 Bft) 95,74 %
11.02.2023 17:38 8,2 C 7,2 C 4,4 C 92 % 1036,2 hPa 0,0 l/m 0 min 0 min 0 W/m 3,2 km/h (1 Bft) 100,00 %
11.02.2023 17:40 8,2 C 7,2 C 4,4 C 92 % 1036,2 hPa 0,0 l/m 0 min 0 min 0 W/m 6,4 km/h (2 Bft) 100,00 %
11.02.2023 17:42 8,2 C 7,2 C 4,4 C 92 % 1036,2 hPa 0,0 l/m 0 min 0 min 0 W/m 0,0 km/h (0 Bft) 100,00 %
11.02.2023 17:44 8,1 C 7,2 C 3,9 C 92 % 1036,2 hPa 0,0 l/m 0 min 0 min 0 W/m 6,4 km/h (2 Bft) 100,00 %
11.02.2023 17:46 8,1 C 7,2 C 3,9 C 92 % 1036,2 hPa 0,0 l/m 0 min 0 min 0 W/m 12,9 km/h (3 Bft) 97,87 %
11.02.2023 17:48 8,1 C 7,2 C 3,9 C 92 % 1036,3 hPa 0,0 l/m 0 min 0 min 0 W/m 6,4 km/h (2 Bft) 100,00 %
11.02.2023 17:50 8,1 C 7,2 C 3,9 C 92 % 1036,2 hPa 0,0 l/m 0 min 0 min 0 W/m 9,7 km/h (2 Bft) 95,74 %
11.02.2023 17:52 8,1 C 7,2 C 3,9 C 92 % 1036,3 hPa 0,0 l/m 0 min 0 min 0 W/m 9,7 km/h (2 Bft) 97,87 %
11.02.2023 17:54 8,1 C 7,2 C 3,9 C 92 % 1036,3 hPa 0,0 l/m 0 min 0 min 0 W/m 6,4 km/h (2 Bft) 97,87 %
11.02.2023 17:56 8,1 C 7,2 C 3,9 C 92 % 1036,2 hPa 0,0 l/m 0 min 0 min 0 W/m 6,4 km/h (2 Bft) 95,74 %
11.02.2023 17:58 8,1 C 7,2 C 3,9 C 92 % 1036,2 hPa 0,0 l/m 0 min 0 min 0 W/m 6,4 km/h (2 Bft) 97,87 %
11.02.2023 18:00 8,1 C 7,2 C 3,9 C 92 % 1036,2 hPa 0,0 l/m 0 min 0 min 0 W/m 3,2 km/h (1 Bft) 97,83 %
11.02.2023 18:02 8,1 C 7,2 C 3,9 C 92 % 1036,2 hPa 0,0 l/m 0 min 0 min 0 W/m 6,4 km/h (2 Bft) 97,87 %
11.02.2023 18:04 8,1 C 7,2 C 3,9 C 92 % 1036,3 hPa 0,0 l/m 0 min 0 min 0 W/m 3,2 km/h (1 Bft) 23,08 %
11.02.2023 18:07 8,0 C 7,2 C 3,9 C 92 % 1036,3 hPa 0,0 l/m 0 min 0 min 0 W/m 6,4 km/h (2 Bft) 95,83 %
11.02.2023 18:08 8,0 C 7,2 C 3,9 C 92 % 1036,3 hPa 0,0 l/m 0 min 0 min 0 W/m 3,2 km/h (1 Bft) 100,00 %
11.02.2023 18:12 8,0 C 7,2 C 3,9 C 92 % 1036,3 hPa 0,0 l/m 0 min 0 min 0 W/m 6,4 km/h (2 Bft) 98,08 %
11.02.2023 18:14 7,9 C 7,2 C 3,9 C 93 % 1036,3 hPa 0,0 l/m 0 min 0 min 0 W/m 6,4 km/h (2 Bft) 95,65 %
11.02.2023 18:16 7,9 C 7,2 C 3,9 C 93 % 1036,3 hPa 0,0 l/m 0 min 0 min 0 W/m 6,4 km/h (2 Bft) 95,74 %
11.02.2023 18:18 7,9 C 7,2 C 3,9 C 93 % 1036,4 hPa 0,0 l/m 0 min 0 min 0 W/m 6,4 km/h (2 Bft) 93,62 %
11.02.2023 18:20 7,9 C 7,2 C 3,9 C 93 % 1036,4 hPa 0,0 l/m 0 min 0 min 0 W/m 6,4 km/h (2 Bft) 93,62 %
11.02.2023 18:22 7,9 C 7,2 C 3,9 C 93 % 1036,4 hPa 0,0 l/m 0 min 0 min 0 W/m 6,4 km/h (2 Bft) 95,74 %
11.02.2023 18:24 7,9 C 7,2 C 3,9 C 93 % 1036,4 hPa 0,0 l/m 0 min 0 min 0 W/m 3,2 km/h (1 Bft) 95,74 %
11.02.2023 18:26 7,9 C 7,2 C 3,9 C 93 % 1036,4 hPa 0,0 l/m 0 min 0 min 0 W/m 9,7 km/h (2 Bft) 95,65 %
11.02.2023 18:28 7,9 C 7,2 C 3,9 C 93 % 1036,5 hPa 0,0 l/m 0 min 0 min 0 W/m 3,2 km/h (1 Bft) 95,74 %
11.02.2023 18:30 7,9 C 7,2 C 3,9 C 93 % 1036,5 hPa 0,0 l/m 0 min 0 min 0 W/m 6,4 km/h (2 Bft) 95,74 %
11.02.2023 18:32 7,9 C 7,2 C 3,9 C 93 % 1036,6 hPa 0,0 l/m 0 min 0 min 0 W/m 9,7 km/h (2 Bft) 93,62 %
11.02.2023 18:34 7,9 C 7,2 C 3,9 C 93 % 1036,5 hPa 0,0 l/m 0 min 0 min 0 W/m 6,4 km/h (2 Bft) 93,62 %
11.02.2023 18:36 7,9 C 7,2 C 3,9 C 93 % 1036,5 hPa 0,0 l/m 0 min 0 min 0 W/m 3,2 km/h (1 Bft) 91,49 %
11.02.2023 18:38 7,9 C 7,2 C 3,9 C 93 % 1036,5 hPa 0,0 l/m 0 min 0 min 0 W/m 3,2 km/h (1 Bft) 97,83 %
11.02.2023 18:40 7,9 C 7,2 C 3,9 C 93 % 1036,5 hPa 0,0 l/m 0 min 0 min 0 W/m 6,4 km/h (2 Bft) 97,87 %
11.02.2023 18:42 7,9 C 7,2 C 3,9 C 93 % 1036,6 hPa 0,0 l/m 0 min 0 min 0 W/m 6,4 km/h (2 Bft) 95,74 %
11.02.2023 18:44 7,9 C 7,2 C 3,9 C 93 % 1036,5 hPa 0,0 l/m 0 min 0 min 0 W/m 6,4 km/h (2 Bft) 95,74 %
11.02.2023 18:46 7,9 C 7,2 C 3,9 C 93 % 1036,5 hPa 0,0 l/m 0 min 0 min 0 W/m 6,4 km/h (2 Bft) 97,87 %
11.02.2023 18:48 7,9 C 7,2 C 3,9 C 93 % 1036,5 hPa 0,0 l/m 0 min 0 min 0 W/m 3,2 km/h (1 Bft) 97,87 %
11.02.2023 18:50 8,0 C 7,2 C 3,9 C 93 % 1036,6 hPa 0,0 l/m 0 min 0 min 0 W/m 9,7 km/h (2 Bft) 100,00 %
11.02.2023 18:52 8,0 C 7,2 C 3,9 C 93 % 1036,6 hPa 0,0 l/m 0 min 0 min 0 W/m 6,4 km/h (2 Bft) 97,83 %
11.02.2023 18:54 7,9 C 7,2 C 3,9 C 93 % 1036,6 hPa 0,0 l/m 0 min 0 min 0 W/m 6,4 km/h (2 Bft) 100,00 %
11.02.2023 18:56 8,0 C 7,2 C 3,9 C 93 % 1036,6 hPa 0,0 l/m 0 min 0 min 0 W/m 12,9 km/h (3 Bft) 95,74 %
11.02.2023 18:58 8,0 C 7,2 C 3,9 C 93 % 1036,6 hPa 0,0 l/m 0 min 0 min 0 W/m 9,7 km/h (2 Bft) 97,87 %
11.02.2023 19:00 8,0 C 7,2 C 3,9 C 93 % 1036,6 hPa 0,0 l/m 0 min 0 min 0 W/m 6,4 km/h (2 Bft) 100,00 %
11.02.2023 19:02 8,0 C 7,2 C 3,9 C 93 % 1036,7 hPa 0,0 l/m 0 min 0 min 0 W/m 6,4 km/h (2 Bft) 97,87 %
11.02.2023 19:04 8,0 C 7,2 C 3,9 C 93 % 1036,8 hPa 0,0 l/m 0 min 0 min 0 W/m 6,4 km/h (2 Bft) 100,00 %
11.02.2023 19:06 8,0 C 7,2 C 3,9 C 93 % 1036,8 hPa 0,0 l/m 0 min 0 min 0 W/m 12,9 km/h (3 Bft) 100,00 %
11.02.2023 19:08 8,0 C 7,2 C 3,9 C 93 % 1036,8 hPa 0,0 l/m 0 min 0 min 0 W/m 12,9 km/h (3 Bft) 97,87 %
11.02.2023 19:10 7,9 C 7,2 C 3,9 C 93 % 1036,9 hPa 0,0 l/m 0 min 0 min 0 W/m 9,7 km/h (2 Bft) 97,87 %
11.02.2023 19:12 7,9 C 7,2 C 3,9 C 93 % 1036,9 hPa 0,0 l/m 0 min 0 min 0 W/m 6,4 km/h (2 Bft) 97,87 %
11.02.2023 19:14 7,9 C 7,2 C 3,9 C 93 % 1036,9 hPa 0,0 l/m 0 min 0 min 0 W/m 6,4 km/h (2 Bft) 97,87 %
11.02.2023 19:16 7,9 C 7,2 C 3,9 C 93 % 1037,0 hPa 0,0 l/m 0 min 0 min 0 W/m 6,4 km/h (2 Bft) 97,87 %
11.02.2023 19:18 7,9 C 7,2 C 3,9 C 93 % 1036,9 hPa 0,0 l/m 0 min 0 min 0 W/m 3,2 km/h (1 Bft) 95,65 %
11.02.2023 19:20 7,9 C 7,2 C 3,9 C 93 % 1036,9 hPa 0,0 l/m 0 min 0 min 0 W/m 6,4 km/h (2 Bft) 97,87 %
11.02.2023 19:22 7,9 C 7,2 C 3,9 C 93 % 1037,0 hPa 0,0 l/m 0 min 0 min 0 W/m 6,4 km/h (2 Bft) 97,87 %
11.02.2023 19:24 7,9 C 7,2 C 3,9 C 93 % 1037,0 hPa 0,0 l/m 0 min 0 min 0 W/m 3,2 km/h (1 Bft) 100,00 %
11.02.2023 19:26 7,9 C 7,2 C 3,9 C 93 % 1037,0 hPa 0,0 l/m 0 min 0 min 0 W/m 0,0 km/h (0 Bft) 93,62 %
11.02.2023 19:28 7,9 C 7,2 C 3,9 C 93 % 1037,0 hPa 0,0 l/m 0 min 0 min 0 W/m 3,2 km/h (1 Bft) 95,74 %
11.02.2023 19:30 7,9 C 7,2 C 3,9 C 93 % 1037,1 hPa 0,0 l/m 0 min 0 min 0 W/m 3,2 km/h (1 Bft) 91,49 %
11.02.2023 19:32 7,9 C 7,2 C 3,9 C 93 % 1037,1 hPa 0,0 l/m 0 min 0 min 0 W/m 6,4 km/h (2 Bft) 95,65 %
11.02.2023 19:34 7,9 C 7,2 C 3,9 C 93 % 1037,0 hPa 0,0 l/m 0 min 0 min 0 W/m 6,4 km/h (2 Bft) 97,87 %
11.02.2023 19:36 7,9 C 7,2 C 3,9 C 93 % 1037,0 hPa 0,0 l/m 0 min 0 min 0 W/m 6,4 km/h (2 Bft) 97,87 %
11.02.2023 19:38 7,9 C 7,2 C 3,9 C 93 % 1037,0 hPa 0,0 l/m 0 min 0 min 0 W/m 6,4 km/h (2 Bft) 95,74 %
11.02.2023 19:40 7,9 C 7,2 C 3,9 C 93 % 1037,0 hPa 0,0 l/m 0 min 0 min 0 W/m 9,7 km/h (2 Bft) 95,74 %
11.02.2023 19:42 7,9 C 7,2 C 3,9 C 93 % 1037,1 hPa 0,0 l/m 0 min 0 min 0 W/m 12,9 km/h (3 Bft) 97,87 %
11.02.2023 19:44 7,8 C 7,2 C 3,9 C 93 % 1037,0 hPa 0,0 l/m 0 min 0 min 0 W/m 12,9 km/h (3 Bft) 95,65 %
11.02.2023 19:46 7,8 C 7,2 C 3,9 C 93 % 1037,0 hPa 0,0 l/m 0 min 0 min 0 W/m 9,7 km/h (2 Bft) 97,87 %
11.02.2023 19:48 7,8 C 7,2 C 3,9 C 93 % 1037,0 hPa 0,0 l/m 0 min 0 min 0 W/m 9,7 km/h (2 Bft) 97,87 %
11.02.2023 19:50 7,8 C 7,2 C 3,9 C 93 % 1037,0 hPa 0,0 l/m 0 min 0 min 0 W/m 6,4 km/h (2 Bft) 93,62 %
11.02.2023 19:52 7,8 C 7,2 C 3,9 C 94 % 1037,1 hPa 0,0 l/m 0 min 0 min 0 W/m 3,2 km/h (1 Bft) 95,74 %
11.02.2023 19:54 7,8 C 7,2 C 3,9 C 94 % 1037,1 hPa 0,0 l/m 0 min 0 min 0 W/m 0,0 km/h (0 Bft) 97,87 %
11.02.2023 19:56 7,8 C 7,2 C 3,9 C 94 % 1037,1 hPa 0,0 l/m 0 min 0 min 0 W/m 0,0 km/h (0 Bft) 95,74 %
11.02.2023 19:58 7,8 C 7,2 C 3,9 C 94 % 1037,1 hPa 0,0 l/m 0 min 0 min 0 W/m 0,0 km/h (0 Bft) 95,65 %
11.02.2023 20:00 7,8 C 7,2 C 3,9 C 94 % 1037,1 hPa 0,0 l/m 0 min 0 min 0 W/m 3,2 km/h (1 Bft) 97,87 %
11.02.2023 20:02 7,8 C 7,2 C 3,9 C 94 % 1037,1 hPa 0,0 l/m 0 min 0 min 0 W/m 6,4 km/h (2 Bft) 91,49 %
11.02.2023 20:04 7,8 C 7,2 C 3,9 C 94 % 1037,1 hPa 0,0 l/m 0 min 0 min 0 W/m 6,4 km/h (2 Bft) 94,00 %
11.02.2023 20:06 7,8 C 7,2 C 3,9 C 94 % 1037,2 hPa 0,0 l/m 0 min 0 min 0 W/m 3,2 km/h (1 Bft) 95,74 %
11.02.2023 20:08 7,8 C 7,2 C 3,9 C 94 % 1037,2 hPa 0,0 l/m 0 min 0 min 0 W/m 3,2 km/h (1 Bft) 89,36 %
11.02.2023 20:10 7,8 C 7,2 C 3,9 C 94 % 1037,2 hPa 0,0 l/m 0 min 0 min 0 W/m 6,4 km/h (2 Bft) 95,65 %
11.02.2023 20:12 7,8 C 7,2 C 3,9 C 94 % 1037,3 hPa 0,0 l/m 0 min 0 min 0 W/m 12,9 km/h (3 Bft) 95,74 %
11.02.2023 20:14 7,8 C 7,2 C 3,9 C 94 % 1037,3 hPa 0,0 l/m 0 min 0 min 0 W/m 6,4 km/h (2 Bft) 97,87 %
11.02.2023 20:16 7,8 C 7,2 C 3,9 C 94 % 1037,4 hPa 0,0 l/m 0 min 0 min 0 W/m 6,4 km/h (2 Bft) 95,74 %
11.02.2023 20:18 7,8 C 7,2 C 3,9 C 94 % 1037,4 hPa 0,0 l/m 0 min 0 min 0 W/m 6,4 km/h (2 Bft) 97,87 %
11.02.2023 20:20 7,8 C 7,2 C 3,9 C 94 % 1037,4 hPa 0,0 l/m 0 min 0 min 0 W/m 6,4 km/h (2 Bft) 95,74 %
11.02.2023 20:22 7,8 C 7,2 C 3,9 C 94 % 1037,4 hPa 0,0 l/m 0 min 0 min 0 W/m 9,7 km/h (2 Bft) 97,83 %
11.02.2023 20:24 7,8 C 7,2 C 3,9 C 94 % 1037,4 hPa 0,0 l/m 0 min 0 min 0 W/m 6,4 km/h (2 Bft) 97,87 %
11.02.2023 20:26 7,8 C 7,2 C 3,9 C 94 % 1037,3 hPa 0,0 l/m 0 min 0 min 0 W/m 3,2 km/h (1 Bft) 97,87 %
11.02.2023 20:28 7,8 C 7,2 C 3,9 C 94 % 1037,4 hPa 0,0 l/m 0 min 0 min 0 W/m 6,4 km/h (2 Bft) 97,87 %
11.02.2023 20:30 7,8 C 7,2 C 3,9 C 94 % 1037,4 hPa 0,0 l/m 0 min 0 min 0 W/m 3,2 km/h (1 Bft) 95,74 %
11.02.2023 20:32 7,8 C 7,2 C 3,9 C 94 % 1037,4 hPa 0,0 l/m 0 min 0 min 0 W/m 9,7 km/h (2 Bft) 97,87 %
11.02.2023 20:34 7,8 C 7,2 C 3,9 C 94 % 1037,4 hPa 0,0 l/m 0 min 0 min 0 W/m 3,2 km/h (1 Bft) 97,87 %
11.02.2023 20:36 7,8 C 7,2 C 3,9 C 94 % 1037,4 hPa 0,0 l/m 0 min 0 min 0 W/m 6,4 km/h (2 Bft) 97,83 %
11.02.2023 20:38 7,8 C 7,2 C 3,9 C 94 % 1037,4 hPa 0,0 l/m 0 min 0 min 0 W/m 3,2 km/h (1 Bft) 97,87 %
11.02.2023 20:40 7,8 C 7,2 C 3,9 C 94 % 1037,4 hPa 0,0 l/m 0 min 0 min 0 W/m 6,4 km/h (2 Bft) 100,00 %
11.02.2023 20:42 7,7 C 7,2 C 3,9 C 94 % 1037,4 hPa 0,0 l/m 0 min 0 min 0 W/m 3,2 km/h (1 Bft) 97,87 %
11.02.2023 20:44 7,7 C 7,2 C 3,9 C 94 % 1037,4 hPa 0,0 l/m 0 min 0 min 0 W/m 3,2 km/h (1 Bft) 100,00 %
11.02.2023 20:46 7,7 C 7,2 C 3,9 C 94 % 1037,4 hPa 0,0 l/m 0 min 0 min 0 W/m 0,0 km/h (0 Bft) 100,00 %
11.02.2023 20:48 7,7 C 7,2 C 3,9 C 94 % 1037,4 hPa 0,0 l/m 0 min 0 min 0 W/m 6,4 km/h (2 Bft) 100,00 %
11.02.2023 20:50 7,7 C 7,2 C 3,9 C 94 % 1037,5 hPa 0,0 l/m 0 min 0 min 0 W/m 9,7 km/h (2 Bft) 97,83 %
11.02.2023 20:52 7,7 C 7,2 C 3,9 C 94 % 1037,5 hPa 0,0 l/m 0 min 0 min 0 W/m 3,2 km/h (1 Bft) 93,62 %
11.02.2023 20:54 7,7 C 7,2 C 3,9 C 94 % 1037,5 hPa 0,0 l/m 0 min 0 min 0 W/m 6,4 km/h (2 Bft) 97,87 %
11.02.2023 20:56 7,7 C 7,2 C 3,9 C 94 % 1037,6 hPa 0,0 l/m 0 min 0 min 0 W/m 3,2 km/h (1 Bft) 95,74 %
11.02.2023 20:58 7,7 C 7,2 C 3,9 C 94 % 1037,5 hPa 0,0 l/m 0 min 0 min 0 W/m 3,2 km/h (1 Bft) 97,87 %
11.02.2023 21:00 7,7 C 7,2 C 3,9 C 94 % 1037,5 hPa 0,0 l/m 0 min 0 min 0 W/m 3,2 km/h (1 Bft) 97,87 %
11.02.2023 21:02 7,7 C 7,2 C 3,9 C 94 % 1037,6 hPa 0,0 l/m 0 min 0 min 0 W/m 6,4 km/h (2 Bft) 95,65 %
11.02.2023 21:04 7,7 C 7,2 C 3,9 C 94 % 1037,6 hPa 0,0 l/m 0 min 0 min 0 W/m 3,2 km/h (1 Bft) 97,87 %
11.02.2023 21:06 7,7 C 7,2 C 3,9 C 94 % 1037,7 hPa 0,0 l/m 0 min 0 min 0 W/m 3,2 km/h (1 Bft) 97,87 %
11.02.2023 21:08 7,7 C 7,2 C 3,9 C 94 % 1037,7 hPa 0,0 l/m 0 min 0 min 0 W/m 3,2 km/h (1 Bft) 97,87 %
11.02.2023 21:10 7,7 C 7,2 C 3,9 C 94 % 1037,7 hPa 0,0 l/m 0 min 0 min 0 W/m 3,2 km/h (1 Bft) 95,74 %
11.02.2023 21:12 7,7 C 7,2 C 3,9 C 94 % 1037,7 hPa 0,0 l/m 0 min 0 min 0 W/m 3,2 km/h (1 Bft) 97,87 %
11.02.2023 21:14 7,7 C 7,2 C 3,9 C 94 % 1037,7 hPa 0,0 l/m 0 min 0 min 0 W/m 3,2 km/h (1 Bft) 97,87 %
11.02.2023 21:16 7,6 C 7,2 C 3,9 C 94 % 1037,6 hPa 0,0 l/m 0 min 0 min 0 W/m 6,4 km/h (2 Bft) 95,65 %
11.02.2023 21:18 7,7 C 7,2 C 3,9 C 94 % 1037,7 hPa 0,0 l/m 0 min 0 min 0 W/m 3,2 km/h (1 Bft) 97,87 %
11.02.2023 21:20 7,6 C 7,2 C 3,9 C 94 % 1037,7 hPa 0,0 l/m 0 min 0 min 0 W/m 0,0 km/h (0 Bft) 97,87 %
11.02.2023 21:22 7,6 C 7,2 C 3,9 C 94 % 1037,7 hPa 0,0 l/m 0 min 0 min 0 W/m 0,0 km/h (0 Bft) 97,87 %
11.02.2023 21:24 7,6 C 6,7 C 3,9 C 94 % 1037,7 hPa 0,0 l/m 0 min 0 min 0 W/m 3,2 km/h (1 Bft) 97,87 %
11.02.2023 21:26 7,6 C 6,7 C 3,9 C 94 % 1037,7 hPa 0,0 l/m 0 min 0 min 0 W/m 6,4 km/h (2 Bft) 95,74 %
11.02.2023 21:28 7,6 C 6,7 C 3,9 C 94 % 1037,7 hPa 0,0 l/m 0 min 0 min 0 W/m 3,2 km/h (1 Bft) 97,83 %
11.02.2023 21:30 7,6 C 6,7 C 3,9 C 94 % 1037,8 hPa 0,0 l/m 0 min 0 min 0 W/m 6,4 km/h (2 Bft) 97,87 %
11.02.2023 21:32 7,6 C 6,7 C 3,9 C 94 % 1037,7 hPa 0,0 l/m 0 min 0 min 0 W/m 6,4 km/h (2 Bft) 95,74 %
11.02.2023 21:34 7,6 C 6,7 C 3,9 C 94 % 1037,7 hPa 0,0 l/m 0 min 0 min 0 W/m 6,4 km/h (2 Bft) 97,87 %
11.02.2023 21:36 7,6 C 6,7 C 3,9 C 94 % 1037,7 hPa 0,0 l/m 0 min 0 min 0 W/m 6,4 km/h (2 Bft) 97,87 %
11.02.2023 21:38 7,6 C 6,7 C 3,9 C 94 % 1037,7 hPa 0,0 l/m 0 min 0 min 0 W/m 6,4 km/h (2 Bft) 97,87 %
11.02.2023 21:40 7,6 C 6,7 C 3,9 C 94 % 1037,8 hPa 0,0 l/m 0 min 0 min 0 W/m 3,2 km/h (1 Bft) 97,87 %
11.02.2023 21:42 7,6 C 6,7 C 3,9 C 94 % 1037,8 hPa 0,0 l/m 0 min 0 min 0 W/m 3,2 km/h (1 Bft) 97,83 %
11.02.2023 21:44 7,6 C 6,7 C 3,9 C 94 % 1037,9 hPa 0,0 l/m 0 min 0 min 0 W/m 3,2 km/h (1 Bft) 100,00 %
11.02.2023 21:46 7,6 C 6,7 C 3,9 C 95 % 1037,9 hPa 0,0 l/m 0 min 0 min 0 W/m 0,0 km/h (0 Bft) 100,00 %
11.02.2023 21:48 7,6 C 6,7 C 3,3 C 95 % 1037,9 hPa 0,0 l/m 0 min 0 min 0 W/m 3,2 km/h (1 Bft) 97,87 %
11.02.2023 21:50 7,6 C 6,7 C 3,9 C 95 % 1037,9 hPa 0,0 l/m 0 min 0 min 0 W/m 3,2 km/h (1 Bft) 95,74 %
11.02.2023 21:52 7,6 C 6,7 C 3,9 C 95 % 1037,9 hPa 0,0 l/m 0 min 0 min 0 W/m 6,4 km/h (2 Bft) 100,00 %
11.02.2023 21:54 7,6 C 6,7 C 3,9 C 95 % 1037,9 hPa 0,0 l/m 0 min 0 min 0 W/m 6,4 km/h (2 Bft) 100,00 %
11.02.2023 21:56 7,5 C 6,7 C 3,3 C 95 % 1038,0 hPa 0,0 l/m 0 min 0 min 0 W/m 3,2 km/h (1 Bft) 100,00 %
11.02.2023 21:58 7,5 C 6,7 C 3,9 C 95 % 1038,0 hPa 0,0 l/m 0 min 0 min 0 W/m 6,4 km/h (2 Bft) 97,87 %
11.02.2023 22:00 7,5 C 6,7 C 3,9 C 95 % 1038,1 hPa 0,0 l/m 0 min 0 min 0 W/m 6,4 km/h (2 Bft) 95,74 %
11.02.2023 22:02 7,5 C 6,7 C 3,9 C 94 % 1038,0 hPa 0,0 l/m 0 min 0 min 0 W/m 3,2 km/h (1 Bft) 97,87 %
11.02.2023 22:04 7,5 C 6,7 C 3,9 C 94 % 1038,0 hPa 0,0 l/m 0 min 0 min 0 W/m 3,2 km/h (1 Bft) 95,74 %
11.02.2023 22:06 7,5 C 6,7 C 3,9 C 94 % 1038,0 hPa 0,0 l/m 0 min 0 min 0 W/m 6,4 km/h (2 Bft) 94,23 %
11.02.2023 22:08 7,5 C 6,7 C 3,3 C 94 % 1038,0 hPa 0,0 l/m 0 min 0 min 0 W/m 3,2 km/h (1 Bft) 97,56 %
11.02.2023 22:10 7,5 C 6,7 C 3,9 C 94 % 1038,0 hPa 0,0 l/m 0 min 0 min 0 W/m 6,4 km/h (2 Bft) 95,74 %
11.02.2023 22:12 7,5 C 6,7 C 3,9 C 94 % 1038,0 hPa 0,0 l/m 0 min 0 min 0 W/m 6,4 km/h (2 Bft) 93,62 %
11.02.2023 22:14 7,5 C 6,7 C 3,9 C 95 % 1038,1 hPa 0,0 l/m 0 min 0 min 0 W/m 3,2 km/h (1 Bft) 91,49 %
11.02.2023 22:16 7,4 C 6,7 C 3,9 C 95 % 1038,1 hPa 0,0 l/m 0 min 0 min 0 W/m 6,4 km/h (2 Bft) 97,87 %
11.02.2023 22:18 7,5 C 6,7 C 3,3 C 95 % 1038,1 hPa 0,0 l/m 0 min 0 min 0 W/m 3,2 km/h (1 Bft) 95,74 %
11.02.2023 22:20 7,4 C 6,7 C 3,3 C 95 % 1038,1 hPa 0,0 l/m 0 min 0 min 0 W/m 3,2 km/h (1 Bft) 95,65 %
11.02.2023 22:22 7,4 C 6,7 C 3,9 C 95 % 1038,1 hPa 0,0 l/m 0 min 0 min 0 W/m 6,4 km/h (2 Bft) 93,62 %
11.02.2023 22:24 7,4 C 6,7 C 3,3 C 95 % 1038,1 hPa 0,0 l/m 0 min 0 min 0 W/m 6,4 km/h (2 Bft) 95,74 %
11.02.2023 22:26 7,4 C 6,7 C 3,3 C 95 % 1038,1 hPa 0,0 l/m 0 min 0 min 0 W/m 3,2 km/h (1 Bft) 93,62 %
11.02.2023 22:28 7,4 C 6,7 C 3,3 C 95 % 1038,1 hPa 0,0 l/m 0 min 0 min 0 W/m 3,2 km/h (1 Bft) 95,74 %
11.02.2023 22:30 7,4 C 6,7 C 3,3 C 95 % 1038,1 hPa 0,0 l/m 0 min 0 min 0 W/m 3,2 km/h (1 Bft) 97,87 %
11.02.2023 22:32 7,4 C 6,7 C 3,3 C 95 % 1038,1 hPa 0,0 l/m 0 min 0 min 0 W/m 3,2 km/h (1 Bft) 97,87 %
11.02.2023 22:34 7,4 C 6,7 C 3,3 C 95 % 1038,2 hPa 0,0 l/m 0 min 0 min 0 W/m 3,2 km/h (1 Bft) 97,83 %
11.02.2023 22:36 7,4 C 6,7 C 3,3 C 95 % 1038,2 hPa 0,0 l/m 0 min 0 min 0 W/m 3,2 km/h (1 Bft) 97,87 %
11.02.2023 22:38 7,4 C 6,7 C 3,3 C 95 % 1038,2 hPa 0,0 l/m 0 min 0 min 0 W/m 0,0 km/h (0 Bft) 97,87 %
11.02.2023 22:40 7,4 C 6,7 C 3,3 C 95 % 1038,2 hPa 0,0 l/m 0 min 0 min 0 W/m 6,4 km/h (2 Bft) 97,67 %
11.02.2023 22:42 7,4 C 6,7 C 3,3 C 95 % 1038,1 hPa 0,0 l/m 0 min 0 min 0 W/m 3,2 km/h (1 Bft) 97,87 %
11.02.2023 22:44 7,4 C 6,7 C 3,3 C 95 % 1038,2 hPa 0,0 l/m 0 min 0 min 0 W/m 3,2 km/h (1 Bft) 97,87 %
11.02.2023 22:46 7,4 C 6,7 C 3,3 C 95 % 1038,3 hPa 0,0 l/m 0 min 0 min 0 W/m 3,2 km/h (1 Bft) 97,87 %
11.02.2023 22:48 7,4 C 6,7 C 3,3 C 95 % 1038,3 hPa 0,0 l/m 0 min 0 min 0 W/m 6,4 km/h (2 Bft) 95,74 %
11.02.2023 22:50 7,4 C 6,7 C 3,3 C 95 % 1038,3 hPa 0,0 l/m 0 min 0 min 0 W/m 3,2 km/h (1 Bft) 100,00 %
11.02.2023 22:52 7,4 C 6,7 C 3,3 C 95 % 1038,3 hPa 0,0 l/m 0 min 0 min 0 W/m 3,2 km/h (1 Bft) 100,00 %
11.02.2023 22:54 7,3 C 6,7 C 3,3 C 95 % 1038,4 hPa 0,0 l/m 0 min 0 min 0 W/m 3,2 km/h (1 Bft) 97,83 %
11.02.2023 22:56 7,3 C 6,7 C 3,3 C 95 % 1038,3 hPa 0,0 l/m 0 min 0 min 0 W/m 3,2 km/h (1 Bft) 97,87 %
11.02.2023 22:58 7,3 C 6,7 C 3,3 C 95 % 1038,3 hPa 0,0 l/m 0 min 0 min 0 W/m 3,2 km/h (1 Bft) 100,00 %
11.02.2023 23:00 7,3 C 6,7 C 3,3 C 95 % 1038,3 hPa 0,0 l/m 0 min 0 min 0 W/m 3,2 km/h (1 Bft) 100,00 %
11.02.2023 23:02 7,3 C 6,7 C 3,3 C 95 % 1038,3 hPa 0,0 l/m 0 min 0 min 0 W/m 3,2 km/h (1 Bft) 100,00 %
11.02.2023 23:04 7,3 C 6,7 C 3,3 C 95 % 1038,3 hPa 0,0 l/m 0 min 0 min 0 W/m 6,4 km/h (2 Bft) 100,00 %
11.02.2023 23:06 7,3 C 6,7 C 3,3 C 95 % 1038,3 hPa 0,0 l/m 0 min 0 min 0 W/m 6,4 km/h (2 Bft) 100,00 %
11.02.2023 23:08 7,3 C 6,7 C 3,3 C 95 % 1038,3 hPa 0,0 l/m 0 min 0 min 0 W/m 3,2 km/h (1 Bft) 100,00 %
11.02.2023 23:10 7,3 C 6,7 C 3,3 C 95 % 1038,4 hPa 0,0 l/m 0 min 0 min 0 W/m 3,2 km/h (1 Bft) 100,00 %
11.02.2023 23:12 7,3 C 6,7 C 3,3 C 95 % 1038,4 hPa 0,0 l/m 0 min 0 min 0 W/m 3,2 km/h (1 Bft) 100,00 %
11.02.2023 23:14 7,3 C 6,7 C 3,3 C 95 % 1038,4 hPa 0,0 l/m 0 min 0 min 0 W/m 3,2 km/h (1 Bft) 100,00 %
11.02.2023 23:16 7,3 C 6,7 C 3,3 C 95 % 1038,4 hPa 0,0 l/m 0 min 0 min 0 W/m 3,2 km/h (1 Bft) 97,87 %
11.02.2023 23:18 7,3 C 6,7 C 3,3 C 95 % 1038,4 hPa 0,0 l/m 0 min 0 min 0 W/m 3,2 km/h (1 Bft) 100,00 %
11.02.2023 23:20 7,3 C 6,7 C 3,3 C 95 % 1038,4 hPa 0,0 l/m 0 min 0 min 0 W/m 3,2 km/h (1 Bft) 100,00 %
11.02.2023 23:22 7,3 C 6,7 C 3,3 C 95 % 1038,3 hPa 0,0 l/m 0 min 0 min 0 W/m 3,2 km/h (1 Bft) 100,00 %
11.02.2023 23:24 7,3 C 6,7 C 3,3 C 95 % 1038,3 hPa 0,0 l/m 0 min 0 min 0 W/m 3,2 km/h (1 Bft) 100,00 %
11.02.2023 23:26 7,3 C 6,7 C 3,3 C 95 % 1038,4 hPa 0,0 l/m 0 min 0 min 0 W/m 0,0 km/h (0 Bft) 100,00 %
11.02.2023 23:28 7,3 C 6,7 C 3,3 C 95 % 1038,3 hPa 0,0 l/m 0 min 0 min 0 W/m 3,2 km/h (1 Bft) 100,00 %
11.02.2023 23:30 7,3 C 6,7 C 3,3 C 95 % 1038,3 hPa 0,0 l/m 0 min 0 min 0 W/m 6,4 km/h (2 Bft) 100,00 %
11.02.2023 23:32 7,3 C 6,7 C 3,3 C 95 % 1038,3 hPa 0,0 l/m 0 min 0 min 0 W/m 3,2 km/h (1 Bft) 93,62 %
11.02.2023 23:34 7,3 C 6,7 C 3,3 C 95 % 1038,2 hPa 0,0 l/m 0 min 0 min 0 W/m 3,2 km/h (1 Bft) 100,00 %
11.02.2023 23:36 7,3 C 6,7 C 3,3 C 95 % 1038,3 hPa 0,0 l/m 0 min 0 min 0 W/m 6,4 km/h (2 Bft) 93,62 %
11.02.2023 23:38 7,3 C 6,7 C 3,3 C 95 % 1038,3 hPa 0,0 l/m 0 min 0 min 0 W/m 6,4 km/h (2 Bft) 100,00 %
11.02.2023 23:40 7,3 C 6,7 C 3,3 C 95 % 1038,3 hPa 0,0 l/m 0 min 0 min 0 W/m 6,4 km/h (2 Bft) 86,96 %
11.02.2023 23:42 7,3 C 6,7 C 3,3 C 95 % 1038,3 hPa 0,0 l/m 0 min 0 min 0 W/m 3,2 km/h (1 Bft) 44,44 %
11.02.2023 23:44 7,3 C 6,7 C 3,3 C 95 % 1038,3 hPa 0,0 l/m 0 min 0 min 0 W/m 3,2 km/h (1 Bft) 100,00 %
11.02.2023 23:46 7,3 C 6,7 C 3,3 C 95 % 1038,3 hPa 0,0 l/m 0 min 0 min 0 W/m 3,2 km/h (1 Bft) 97,87 %
11.02.2023 23:48 7,3 C 6,7 C 3,3 C 95 % 1038,3 hPa 0,0 l/m 0 min 0 min 0 W/m 3,2 km/h (1 Bft) 100,00 %
11.02.2023 23:50 7,3 C 6,7 C 3,3 C 95 % 1038,3 hPa 0,0 l/m 0 min 0 min 0 W/m 3,2 km/h (1 Bft) 95,74 %
11.02.2023 23:52 7,3 C 6,7 C 3,3 C 95 % 1038,3 hPa 0,0 l/m 0 min 0 min 0 W/m 3,2 km/h (1 Bft) 95,65 %
11.02.2023 23:54 7,3 C 6,7 C 3,3 C 95 % 1038,3 hPa 0,0 l/m 0 min 0 min 0 W/m 3,2 km/h (1 Bft) 95,74 %
11.02.2023 23:56 7,3 C 6,7 C 3,3 C 95 % 1038,3 hPa 0,0 l/m 0 min 0 min 0 W/m 6,4 km/h (2 Bft) 93,62 %
11.02.2023 23:58 7,3 C 6,7 C 3,3 C 95 % 1038,4 hPa 0,0 l/m 0 min 0 min 0 W/m 3,2 km/h (1 Bft) 93,62 %
_ Min-Zeit 02:10 01:42 02:08 00:00 06:52 - - - - 02:08 09:08
Minimum _ 5,3 C 4,4 C 0,6 C 88 % 1034,1 hPa - - - - 0,0 km/h (0 Bft) 20,00 %
_ Max-Zeit 15:26 15:18 14:50 09:44 22:54 00:00 00:00 00:00 14:46 05:48 00:18
Maximum _ 8,6 C 8,9 C 5,0 C 96 % 1038,4 hPa 0,0 l/m 0 min 0 min 143 W/m 22,5 km/h
O-SO (4 Bft)
100,00 %
Durchschnitt _ 6,8 C 6,3 C 3,0 C 93 % 1035,8 hPa #0,0 l/m #0 min. #0 min. 62 W/m 8,6 km/h (2 Bft) 93,10 %
© 2023 W. Hausmann